tititudorancea.com
Ararat Weather - Ararat,Victoria,Australia
 
Daily Summary for July 28, 2014 Units:  Metric    English   Both
« Previous Day
Next Day »
Daily Weekly Monthly Yearly Custom
  Current: High: Low: Average:
Temperature: 10.4 °C 15 °C 2.9 °C 9.2 °C
Dew Point: 8.7 °C 12.1 °C 2.8 °C 7.4 °C
Humidity: 89% 99% 72% 90%
Wind Speed: 7.2km/h 19.5km/h 0km/h 4.5km/h
Wind Gust: 27km/h 33.2km/h - -
WindNNW - - WSW
Pressure: 1011.4 hPa 1017.5 hPa 1010.7 hPa -
Precipitation: 0 mm      
Historical Graphs
 
 
Ararat weather Find more about Weather in Ararat, AU


 




 


Tabular Data for July 28, 2014
Time Temperature Dew Point Pressure Wind Wind Speed Wind Gust Humidity Rainfall Rate (Hourly)
00:00 7.3 °C 7.1 °C 1017.5 hPa North 1.1 km/h 8.7 km/h 98% 0 mm
00:02 7.3 °C 7.1 °C 1017.5 hPa North 2.6 km/h 8.7 km/h 98% 0 mm
00:04 7.3 °C 7.1 °C 1017.2 hPa NNE 1.1 km/h 9.7 km/h 98% 0 mm
00:07 7.3 °C 7.1 °C 1017.2 hPa NNE 3.5 km/h 9.7 km/h 98% 0 mm
00:08 7.3 °C 7.1 °C 1017.2 hPa NNE 2.6 km/h 9.7 km/h 98% 0 mm
00:09 7.3 °C 7.1 °C 1017.2 hPa NNE 2.6 km/h 9.7 km/h 98% 0 mm
00:10 7.3 °C 7.2 °C 1017.2 hPa North 5 km/h 9.7 km/h 99% 0 mm
00:12 7.3 °C 7.2 °C 1016.8 hPa North 2.6 km/h 9.7 km/h 99% 0 mm
00:13 7.3 °C 7.1 °C 1017.2 hPa North 6.1 km/h 9.7 km/h 98% 0 mm
00:14 7.3 °C 7.1 °C 1017.2 hPa NNW 3.5 km/h 9.7 km/h 98% 0 mm
00:16 7.3 °C 7.1 °C 1017.2 hPa NNW 3.5 km/h 9.7 km/h 99% 0 mm
00:18 7.3 °C 7.1 °C 1016.8 hPa NNW 3.5 km/h 9.7 km/h 99% 0 mm
00:19 7.3 °C 7.1 °C 1016.8 hPa NNW 3.5 km/h 9.7 km/h 99% 0 mm
00:21 7.3 °C 7.1 °C 1017.2 hPa NNW 2.6 km/h 9.7 km/h 99% 0 mm
00:23 7.2 °C 7 °C 1016.8 hPa NNW 2.6 km/h 8.7 km/h 99% 0 mm
00:24 7.2 °C 7 °C 1017.2 hPa NNW 2.6 km/h 8.7 km/h 99% 0 mm
00:26 7.2 °C 7 °C 1016.8 hPa NNW 3.5 km/h 7.2 km/h 99% 0 mm
00:29 7.1 °C 6.9 °C 1016.8 hPa NNW 3.5 km/h 9.7 km/h 99% 0 mm
00:30 7.1 °C 6.9 °C 1016.8 hPa NW 3.5 km/h 9.7 km/h 99% 0 mm
00:31 7.1 °C 6.9 °C 1016.8 hPa NW 5 km/h 9.7 km/h 99% 0 mm
00:34 7.2 °C 7 °C 1016.8 hPa NW 3.5 km/h 13.4 km/h 99% 0 mm
00:35 7.1 °C 6.9 °C 1016.8 hPa NW 5 km/h 13.4 km/h 99% 0 mm
00:37 7.2 °C 7 °C 1016.8 hPa NNW 6.1 km/h 13.4 km/h 99% 0 mm
00:39 7.1 °C 6.9 °C 1016.8 hPa NW 2.6 km/h 13.4 km/h 99% 0 mm
00:41 7.1 °C 6.9 °C 1016.8 hPa NNW 3.5 km/h 13.4 km/h 99% 0 mm
00:42 7.1 °C 6.9 °C 1016.8 hPa NNW 2.6 km/h 13.4 km/h 99% 0 mm
00:45 6.9 °C 6.8 °C 1016.8 hPa NNW 3.5 km/h 12.2 km/h 99% 0 mm
00:46 6.9 °C 6.8 °C 1016.8 hPa NNW 6.1 km/h 12.2 km/h 99% 0 mm
00:47 6.9 °C 6.8 °C 1016.8 hPa NNW 2.6 km/h 9.7 km/h 99% 0 mm
00:48 6.9 °C 6.8 °C 1017.2 hPa NNW 3.5 km/h 9.7 km/h 99% 0 mm
00:50 6.9 °C 6.8 °C 1016.8 hPa NNW 2.6 km/h 9.7 km/h 99% 0 mm
00:51 6.9 °C 6.8 °C 1016.8 hPa NW 3.5 km/h 9.7 km/h 99% 0 mm
00:52 6.9 °C 6.8 °C 1016.8 hPa NW 1.1 km/h 9.7 km/h 99% 0 mm
00:53 6.8 °C 6.7 °C 1016.8 hPa NW 2.6 km/h 8.7 km/h 99% 0 mm
00:55 6.8 °C 6.7 °C 1016.8 hPa NW 2.6 km/h 8.7 km/h 99% 0 mm
00:56 6.8 °C 6.7 °C 1016.8 hPa NW 2.6 km/h 8.7 km/h 99% 0 mm
00:57 6.8 °C 6.7 °C 1016.8 hPa NW 2.6 km/h 8.7 km/h 99% 0 mm
00:58 6.8 °C 6.7 °C 1016.8 hPa NW 1.1 km/h 8.7 km/h 99% 0 mm
00:59 6.8 °C 6.6 °C 1016.8 hPa NW 5 km/h 9.7 km/h 99% 0 mm
01:01 6.8 °C 6.6 °C 1016.8 hPa NW 2.6 km/h 9.7 km/h 99% 0 mm
01:02 6.8 °C 6.6 °C 1016.8 hPa NW 1.1 km/h 9.7 km/h 99% 0 mm
01:03 6.7 °C 6.5 °C 1016.8 hPa NW 2.6 km/h 9.7 km/h 99% 0 mm
01:04 6.7 °C 6.5 °C 1016.8 hPa NW 2.6 km/h 9.7 km/h 99% 0 mm
01:06 6.7 °C 6.5 °C 1016.8 hPa NW 1.1 km/h 9.7 km/h 99% 0 mm
01:07 6.7 °C 6.5 °C 1016.5 hPa NW 1.1 km/h 9.7 km/h 99% 0 mm
01:08 6.7 °C 6.5 °C 1016.8 hPa Calm   9.7 km/h 99% 0 mm
01:10 6.6 °C 6.4 °C 1016.8 hPa Calm   6.1 km/h 99% 0 mm
01:12 6.6 °C 6.4 °C 1016.8 hPa Calm   6.1 km/h 99% 0 mm
01:13 6.6 °C 6.4 °C 1016.5 hPa NW 1.1 km/h 6.1 km/h 99% 0 mm
01:14 6.6 °C 6.4 °C 1016.5 hPa NW 1.1 km/h 6.1 km/h 99% 0 mm
01:15 6.6 °C 6.4 °C 1016.8 hPa NNW 1.1 km/h 6.1 km/h 99% 0 mm
01:17 6.6 °C 6.4 °C 1016.8 hPa Calm   5 km/h 99% 0 mm
01:18 6.6 °C 6.4 °C 1016.8 hPa NNW 2.6 km/h 5 km/h 99% 0 mm
01:19 6.6 °C 6.4 °C 1016.8 hPa North 1.1 km/h 5 km/h 99% 0 mm
01:21 6.6 °C 6.4 °C 1016.5 hPa Calm   5 km/h 99% 0 mm
01:22 6.6 °C 6.3 °C 1016.8 hPa Calm   5 km/h 98% 0 mm
01:23 6.4 °C 6.2 °C 1016.8 hPa Calm   5 km/h 98% 0 mm
01:24 6.4 °C 6.2 °C 1016.8 hPa North 1.1 km/h 5 km/h 98% 0 mm
01:25 6.4 °C 6.2 °C 1016.8 hPa Calm   5 km/h 98% 0 mm
01:27 6.4 °C 6.2 °C 1016.8 hPa Calm   5 km/h 98% 0 mm
01:28 6.4 °C 6.2 °C 1016.8 hPa Calm   5 km/h 98% 0 mm
01:29 6.4 °C 6.3 °C 1016.8 hPa Calm   5 km/h 99% 0 mm
01:30 6.4 °C 6.2 °C 1016.8 hPa NNE 1.1 km/h 5 km/h 98% 0 mm
01:31 6.4 °C 6.3 °C 1016.5 hPa NNE 1.1 km/h 3.5 km/h 99% 0 mm
01:32 6.4 °C 6.2 °C 1016.8 hPa Calm   3.5 km/h 98% 0 mm
01:34 6.4 °C 6.2 °C 1016.8 hPa NNE 2.6 km/h 3.5 km/h 98% 0 mm
01:36 6.4 °C 6.2 °C 1016.8 hPa NNE 2.6 km/h 3.5 km/h 98% 0 mm
01:38 6.4 °C 6.2 °C 1016.8 hPa NNE 1.1 km/h 3.5 km/h 98% 0 mm
01:39 6.4 °C 6.3 °C 1016.8 hPa NNE 1.1 km/h 3.5 km/h 99% 0 mm
01:42 6.4 °C 6.1 °C 1016.8 hPa NE 1.1 km/h 3.5 km/h 98% 0 mm
01:43 6.4 °C 6.1 °C 1016.8 hPa NE 2.6 km/h 3.5 km/h 98% 0 mm
01:44 6.4 °C 6.1 °C 1016.5 hPa NE 1.1 km/h 3.5 km/h 98% 0 mm
01:45 6.4 °C 6.1 °C 1016.8 hPa NE 1.1 km/h 3.5 km/h 98% 0 mm
01:48 6.4 °C 6.1 °C 1016.5 hPa Calm   3.5 km/h 98% 0 mm
01:49 6.3 °C 6 °C 1016.8 hPa NE 2.6 km/h 3.5 km/h 98% 0 mm
01:50 6.3 °C 6 °C 1016.8 hPa NE 2.6 km/h 3.5 km/h 98% 0 mm
01:53 6.3 °C 6 °C 1016.8 hPa NE 1.1 km/h 3.5 km/h 98% 0 mm
01:54 6.2 °C 5.9 °C 1016.5 hPa NE 1.1 km/h 3.5 km/h 98% 0 mm
01:55 6.2 °C 5.9 °C 1016.5 hPa NE 1.1 km/h 3.5 km/h 98% 0 mm
01:56 6.2 °C 5.9 °C 1016.5 hPa NE 1.1 km/h 3.5 km/h 98% 0 mm
01:58 6.2 °C 5.9 °C 1016.5 hPa Calm   3.5 km/h 98% 0 mm
01:59 6.2 °C 5.9 °C 1016.5 hPa Calm   3.5 km/h 98% 0 mm
02:00 6.2 °C 5.9 °C 1016.1 hPa Calm   3.5 km/h 98% 0 mm
02:01 6.1 °C 5.8 °C 1016.5 hPa NE 1.1 km/h 3.5 km/h 98% 0 mm
02:04 6.1 °C 5.8 °C 1016.1 hPa Calm   3.5 km/h 98% 0 mm
02:05 6.1 °C 5.8 °C 1016.5 hPa Calm   3.5 km/h 98% 0 mm
02:06 6.1 °C 5.8 °C 1016.1 hPa Calm   3.5 km/h 98% 0 mm
02:07 6.1 °C 5.8 °C 1016.1 hPa Calm   3.5 km/h 98% 0 mm
02:09 6 °C 5.7 °C 1016.1 hPa Calm   3.5 km/h 98% 0 mm
02:10 6 °C 5.7 °C 1016.1 hPa Calm   3.5 km/h 98% 0 mm
02:11 6 °C 5.7 °C 1016.1 hPa Calm   3.5 km/h 98% 0 mm
02:12 6 °C 5.7 °C 1016.1 hPa Calm   2.6 km/h 98% 0 mm
02:13 6 °C 5.7 °C 1016.1 hPa Calm   2.6 km/h 98% 0 mm
02:14 6 °C 5.7 °C 1016.1 hPa Calm   2.6 km/h 98% 0 mm
02:16 5.9 °C 5.6 °C 1016.1 hPa Calm   2.6 km/h 98% 0 mm
02:17 5.9 °C 5.6 °C 1016.1 hPa Calm   2.6 km/h 98% 0 mm
02:19 5.9 °C 5.6 °C 1016.1 hPa Calm   2.6 km/h 98% 0 mm
02:21 5.9 °C 5.6 °C 1016.1 hPa Calm   2.6 km/h 98% 0 mm
02:22 5.8 °C 5.5 °C 1016.1 hPa Calm   2.6 km/h 98% 0 mm
02:23 5.8 °C 5.5 °C 1016.1 hPa Calm   2.6 km/h 98% 0 mm
02:24 5.8 °C 5.5 °C 1016.1 hPa Calm   2.6 km/h 98% 0 mm
02:25 5.8 °C 5.5 °C 1016.1 hPa Calm   2.6 km/h 98% 0 mm
02:26 5.8 °C 5.5 °C 1016.1 hPa Calm   2.6 km/h 98% 0 mm
02:27 5.7 °C 5.4 °C 1016.1 hPa Calm   2.6 km/h 98% 0 mm
02:28 5.7 °C 5.4 °C 1015.8 hPa Calm   2.6 km/h 98% 0 mm
02:30 5.7 °C 5.4 °C 1016.1 hPa Calm   2.6 km/h 98% 0 mm
02:31 5.6 °C 5.3 °C 1016.1 hPa Calm   2.6 km/h 98% 0 mm
02:32 5.6 °C 5.3 °C 1015.8 hPa Calm   2.6 km/h 98% 0 mm
02:33 5.6 °C 5.3 °C 1015.8 hPa Calm   2.6 km/h 98% 0 mm
02:35 5.5 °C 5.2 °C 1015.8 hPa Calm   2.6 km/h 98% 0 mm
02:37 5.5 °C 5.2 °C 1015.8 hPa Calm   1.1 km/h 98% 0 mm
02:38 5.5 °C 5.2 °C 1015.8 hPa Calm     98% 0 mm
02:39 5.4 °C 5.1 °C 1015.8 hPa Calm     98% 0 mm
02:41 5.3 °C 4.8 °C 1015.8 hPa Calm     97% 0 mm
02:42 5.3 °C 4.8 °C 1015.8 hPa Calm     97% 0 mm
02:43 5.3 °C 5 °C 1015.8 hPa Calm     98% 0 mm
02:45 5.2 °C 4.8 °C 1015.5 hPa Calm     97% 0 mm
02:46 5.2 °C 4.9 °C 1015.8 hPa Calm     98% 0 mm
02:47 5.2 °C 4.9 °C 1015.8 hPa Calm     98% 0 mm
02:50 5.1 °C 4.8 °C 1015.8 hPa Calm   2.6 km/h 98% 0 mm
02:51 5.1 °C 4.8 °C 1015.8 hPa Calm   2.6 km/h 98% 0 mm
02:53 5 °C 4.6 °C 1015.8 hPa Calm   3.5 km/h 97% 0 mm
02:55 5 °C 4.7 °C 1015.8 hPa Calm   3.5 km/h 98% 0 mm
02:56 4.9 °C 4.6 °C 1015.5 hPa Calm   3.5 km/h 98% 0 mm
02:57 4.9 °C 4.4 °C 1015.8 hPa Calm   3.5 km/h 97% 0 mm
02:58 4.8 °C 4.4 °C 1015.5 hPa Calm   3.5 km/h 97% 0 mm
02:59 4.7 °C 4.3 °C 1015.5 hPa NW 1.1 km/h 3.5 km/h 97% 0 mm
03:03 4.5 °C 4.1 °C 1015.5 hPa Calm   5 km/h 97% 0 mm
03:04 4.5 °C 4.1 °C 1015.5 hPa NNW 1.1 km/h 5 km/h 97% 0 mm
03:05 4.4 °C 4 °C 1015.5 hPa NNW 1.1 km/h 5 km/h 97% 0 mm
03:08 4.4 °C 4.1 °C 1015.5 hPa Calm   5 km/h 98% 0 mm
03:09 4.4 °C 4.1 °C 1015.5 hPa NW 1.1 km/h 5 km/h 98% 0 mm
03:10 4.4 °C 4.1 °C 1015.5 hPa Calm   3.5 km/h 98% 0 mm
03:11 4.4 °C 4.1 °C 1015.5 hPa Calm   3.5 km/h 98% 0 mm
03:14 4.3 °C 4 °C 1015.5 hPa Calm   2.6 km/h 98% 0 mm
03:15 4.3 °C 4 °C 1015.5 hPa Calm   2.6 km/h 98% 0 mm
03:16 4.3 °C 4 °C 1015.8 hPa Calm   2.6 km/h 98% 0 mm
03:19 4.2 °C 3.9 °C 1015.8 hPa Calm   1.1 km/h 98% 0 mm
03:20 4.2 °C 3.9 °C 1015.5 hPa Calm   1.1 km/h 98% 0 mm
03:21 4.2 °C 3.9 °C 1015.5 hPa Calm   1.1 km/h 98% 0 mm
03:24 4.2 °C 3.9 °C 1015.5 hPa Calm     98% 0 mm
03:25 4.2 °C 3.9 °C 1015.5 hPa Calm     98% 0 mm
03:26 4.1 °C 3.8 °C 1015.5 hPa Calm     98% 0 mm
03:27 4.1 °C 3.8 °C 1015.5 hPa Calm     98% 0 mm
03:30 4 °C 3.7 °C 1015.5 hPa Calm     98% 0 mm
03:32 4 °C 3.7 °C 1015.5 hPa Calm     98% 0 mm
03:35 3.9 °C 3.6 °C 1015.5 hPa Calm   2.6 km/h 98% 0 mm
03:36 3.9 °C 3.6 °C 1015.5 hPa Calm   2.6 km/h 98% 0 mm
03:37 3.8 °C 3.6 °C 1015.5 hPa Calm   2.6 km/h 98% 0 mm
03:39 3.8 °C 3.6 °C 1015.5 hPa Calm   2.6 km/h 98% 0 mm
03:41 3.8 °C 3.6 °C 1015.5 hPa Calm   2.6 km/h 98% 0 mm
03:42 3.8 °C 3.6 °C 1015.5 hPa WNW 1.1 km/h 2.6 km/h 98% 0 mm
03:44 3.8 °C 3.6 °C 1015.5 hPa Calm   2.6 km/h 98% 0 mm
03:45 3.8 °C 3.6 °C 1015.5 hPa Calm   2.6 km/h 98% 0 mm
03:46 3.8 °C 3.6 °C 1015.5 hPa WNW 1.1 km/h 2.6 km/h 98% 0 mm
03:47 3.8 °C 3.6 °C 1015.5 hPa WNW 1.1 km/h 3.5 km/h 98% 0 mm
03:50 3.7 °C 3.4 °C 1015.5 hPa Calm   3.5 km/h 98% 0 mm
03:51 3.7 °C 3.4 °C 1015.5 hPa Calm   3.5 km/h 98% 0 mm
03:52 3.7 °C 3.4 °C 1015.5 hPa Calm   3.5 km/h 98% 0 mm
03:56 3.7 °C 3.6 °C 1015.5 hPa NW 1.1 km/h 3.5 km/h 99% 0 mm
03:57 3.6 °C 3.3 °C 1015.5 hPa Calm   3.5 km/h 98% 0 mm
03:58 3.6 °C 3.3 °C 1015.5 hPa Calm   3.5 km/h 98% 0 mm
03:59 3.6 °C 3.4 °C 1015.5 hPa Calm   3.5 km/h 99% 0 mm
04:01 3.6 °C 3.2 °C 1015.5 hPa Calm   3.5 km/h 98% 0 mm
04:02 3.6 °C 3.2 °C 1015.5 hPa Calm   2.6 km/h 98% 0 mm
04:03 3.4 °C 3.2 °C 1015.5 hPa NW 1.1 km/h 3.5 km/h 98% 0 mm
04:06 3.4 °C 3.3 °C 1015.5 hPa NW 1.1 km/h 3.5 km/h 99% 0 mm
04:07 3.3 °C 3.2 °C 1015.1 hPa Calm   3.5 km/h 99% 0 mm
04:08 3.3 °C 3.2 °C 1015.5 hPa Calm   3.5 km/h 99% 0 mm
04:09 3.3 °C 3.2 °C 1015.5 hPa Calm   3.5 km/h 99% 0 mm
04:11 3.3 °C 3.2 °C 1015.1 hPa West 1.1 km/h 3.5 km/h 99% 0 mm
04:12 3.3 °C 3.2 °C 1015.1 hPa Calm   3.5 km/h 99% 0 mm
04:13 3.3 °C 3.2 °C 1015.1 hPa Calm   3.5 km/h 99% 0 mm
04:16 3.2 °C 3.1 °C 1015.1 hPa Calm   3.5 km/h 99% 0 mm
04:17 3.2 °C 3.1 °C 1015.1 hPa Calm   3.5 km/h 99% 0 mm
04:18 3.2 °C 3.1 °C 1015.1 hPa Calm   3.5 km/h 99% 0 mm
04:19 3.2 °C 3.1 °C 1015.1 hPa Calm   3.5 km/h 99% 0 mm
04:21 3.2 °C 3.1 °C 1015.1 hPa Calm   3.5 km/h 99% 0 mm
04:22 3.1 °C 3 °C 1015.1 hPa Calm   3.5 km/h 99% 0 mm
04:23 3.1 °C 3 °C 1015.1 hPa Calm   3.5 km/h 99% 0 mm
04:26 3.1 °C 3 °C 1015.1 hPa Calm   2.6 km/h 99% 0 mm
04:27 3.1 °C 3 °C 1015.1 hPa Calm   2.6 km/h 99% 0 mm
04:28 3.1 °C 3 °C 1015.5 hPa Calm   2.6 km/h 99% 0 mm
04:29 3.1 °C 3 °C 1015.1 hPa Calm   2.6 km/h 99% 0 mm
04:31 3.1 °C 3 °C 1015.1 hPa North 1.1 km/h 2.6 km/h 99% 0 mm
04:32 3.1 °C 3 °C 1015.1 hPa North 1.1 km/h 2.6 km/h 99% 0 mm
04:33 3.1 °C 3 °C 1015.1 hPa Calm   2.6 km/h 99% 0 mm
04:34 3.1 °C 3 °C 1015.1 hPa Calm   2.6 km/h 99% 0 mm
04:37 3.2 °C 3.1 °C 1015.1 hPa Calm   2.6 km/h 99% 0 mm
04:39 3.1 °C 3 °C 1015.1 hPa Calm   2.6 km/h 99% 0 mm
04:40 3.1 °C 3 °C 1015.1 hPa Calm   2.6 km/h 99% 0 mm
04:42 3.2 °C 3.1 °C 1014.8 hPa Calm   2.6 km/h 99% 0 mm
04:44 3.2 °C 3.1 °C 1014.8 hPa Calm     99% 0 mm
04:45 3.2 °C 3.1 °C 1014.8 hPa Calm     99% 0 mm
04:46 3.2 °C 3.1 °C 1015.1 hPa Calm     99% 0 mm
04:47 3.1 °C 3 °C 1015.1 hPa Calm     99% 0 mm
04:48 3.1 °C 3 °C 1015.1 hPa Calm     99% 0 mm
04:50 3.1 °C 3 °C 1014.8 hPa Calm   1.1 km/h 99% 0 mm
04:51 3.1 °C 3 °C 1014.8 hPa Calm   1.1 km/h 99% 0 mm
04:52 3.1 °C 2.9 °C 1014.8 hPa Calm   1.1 km/h 99% 0 mm
04:53 3.1 °C 2.9 °C 1014.8 hPa Calm   1.1 km/h 99% 0 mm
04:55 3.1 °C 2.9 °C 1015.1 hPa North 2.6 km/h 5 km/h 99% 0 mm
04:56 3.1 °C 2.9 °C 1014.8 hPa North 1.1 km/h 5 km/h 99% 0 mm
04:58 3.1 °C 2.9 °C 1014.8 hPa North 1.1 km/h 5 km/h 99% 0 mm
04:59 2.9 °C 2.8 °C 1014.8 hPa NNE 2.6 km/h 5 km/h 99% 0 mm
05:00 2.9 °C 2.8 °C 1014.8 hPa NNE 2.6 km/h 5 km/h 99% 0 mm
05:01 2.9 °C 2.8 °C 1014.8 hPa Calm   5 km/h 99% 0 mm
05:03 2.9 °C 2.8 °C 1014.8 hPa Calm   5 km/h 99% 0 mm
05:04 2.9 °C 2.8 °C 1014.8 hPa Calm   5 km/h 99% 0 mm
05:05 2.9 °C 2.8 °C 1014.8 hPa Calm   5 km/h 99% 0 mm
05:06 3.1 °C 2.9 °C 1014.8 hPa Calm   5 km/h 99% 0 mm
05:07 3.1 °C 2.9 °C 1014.8 hPa Calm   5 km/h 99% 0 mm
05:08 3.1 °C 2.9 °C 1014.4 hPa Calm   5 km/h 99% 0 mm
05:10 3.1 °C 2.9 °C 1014.4 hPa Calm   5 km/h 99% 0 mm
05:11 3.1 °C 2.9 °C 1014.4 hPa Calm   2.6 km/h 99% 0 mm
05:12 3.1 °C 3 °C 1014.8 hPa Calm   2.6 km/h 99% 0 mm
05:13 3.1 °C 3 °C 1014.8 hPa Calm   2.6 km/h 99% 0 mm
05:16 3.2 °C 3.1 °C 1014.8 hPa SE 1.1 km/h 2.6 km/h 99% 0 mm
05:17 3.3 °C 3.2 °C 1014.8 hPa SE 1.1 km/h 2.6 km/h 99% 0 mm
05:18 3.3 °C 3.2 °C 1014.4 hPa SE 1.1 km/h 2.6 km/h 99% 0 mm
05:19 3.3 °C 3.2 °C 1014.4 hPa SE 1.1 km/h 2.6 km/h 99% 0 mm
05:21 3.6 °C 3.4 °C 1014.8 hPa ESE 1.1 km/h 3.5 km/h 99% 0 mm
05:22 3.6 °C 3.4 °C 1014.8 hPa ESE 1.1 km/h 3.5 km/h 99% 0 mm
05:23 3.6 °C 3.4 °C 1014.4 hPa ESE 2.6 km/h 3.5 km/h 99% 0 mm
05:24 3.6 °C 3.4 °C 1014.8 hPa Calm   3.5 km/h 99% 0 mm
05:27 3.6 °C 3.5 °C 1014.8 hPa East 1.1 km/h 3.5 km/h 99% 0 mm
05:28 3.6 °C 3.5 °C 1014.8 hPa East 2.6 km/h 3.5 km/h 99% 0 mm
05:29 3.6 °C 3.5 °C 1014.8 hPa ESE 1.1 km/h 3.5 km/h 99% 0 mm
05:33 3.6 °C 3.5 °C 1014.8 hPa ESE 1.1 km/h 3.5 km/h 99% 0 mm
05:34 3.6 °C 3.5 °C 1014.8 hPa SE 1.1 km/h 3.5 km/h 99% 0 mm
05:38 3.7 °C 3.6 °C 1014.8 hPa ESE 1.1 km/h 3.5 km/h 99% 0 mm
05:39 3.7 °C 3.6 °C 1014.8 hPa Calm   3.5 km/h 99% 0 mm
05:43 3.6 °C 3.5 °C 1014.8 hPa East 1.1 km/h 3.5 km/h 99% 0 mm
05:44 3.6 °C 3.5 °C 1014.8 hPa East 2.6 km/h 3.5 km/h 99% 0 mm
05:45 3.6 °C 3.5 °C 1014.8 hPa Calm   3.5 km/h 99% 0 mm
05:49 3.6 °C 3.4 °C 1014.8 hPa Calm   3.5 km/h 99% 0 mm
05:50 3.6 °C 3.4 °C 1014.8 hPa Calm   3.5 km/h 99% 0 mm
05:51 3.4 °C 3.3 °C 1014.8 hPa Calm   3.5 km/h 99% 0 mm
05:52 3.4 °C 3.3 °C 1014.8 hPa Calm   3.5 km/h 99% 0 mm
05:55 3.4 °C 3.3 °C 1014.4 hPa East 1.1 km/h 3.5 km/h 99% 0 mm
05:56 3.4 °C 3.3 °C 1014.4 hPa Calm   3.5 km/h 99% 0 mm
05:57 3.4 °C 3.3 °C 1014.4 hPa ESE 2.6 km/h 3.5 km/h 99% 0 mm
06:00 3.6 °C 3.4 °C 1014.4 hPa SE 1.1 km/h 3.5 km/h 99% 0 mm
06:01 3.6 °C 3.4 °C 1014.4 hPa SE 1.1 km/h 3.5 km/h 99% 0 mm
06:03 3.6 °C 3.5 °C 1014.4 hPa SE 2.6 km/h 3.5 km/h 99% 0 mm
06:05 3.6 °C 3.5 °C 1014.4 hPa ESE 1.1 km/h 5 km/h 99% 0 mm
06:06 3.7 °C 3.6 °C 1014.4 hPa ESE 2.6 km/h 5 km/h 99% 0 mm
06:07 3.7 °C 3.6 °C 1014.4 hPa East 2.6 km/h 5 km/h 99% 0 mm
06:08 3.7 °C 3.6 °C 1014.4 hPa ESE 1.1 km/h 6.1 km/h 99% 0 mm
06:09 3.7 °C 3.6 °C 1014.4 hPa ESE 1.1 km/h 6.1 km/h 99% 0 mm
06:11 3.8 °C 3.7 °C 1014.8 hPa East 1.1 km/h 6.1 km/h 99% 0 mm
06:12 3.8 °C 3.7 °C 1014.4 hPa East 2.6 km/h 6.1 km/h 99% 0 mm
06:14 3.8 °C 3.7 °C 1014.4 hPa Calm   6.1 km/h 99% 0 mm
06:17 3.7 °C 3.6 °C 1014.4 hPa East 1.1 km/h 6.1 km/h 99% 0 mm
06:19 3.7 °C 3.6 °C 1014.4 hPa ENE 2.6 km/h 5 km/h 99% 0 mm
06:20 3.7 °C 3.6 °C 1014.8 hPa Calm   5 km/h 99% 0 mm
06:22 3.6 °C 3.5 °C 1014.4 hPa Calm   5 km/h 99% 0 mm
06:23 3.6 °C 3.5 °C 1014.4 hPa ENE 2.6 km/h 5 km/h 99% 0 mm
06:25 3.6 °C 3.5 °C 1014.4 hPa ENE 1.1 km/h 5 km/h 99% 0 mm
06:27 3.6 °C 3.5 °C 1014.4 hPa ENE 2.6 km/h 5 km/h 99% 0 mm
06:28 3.6 °C 3.5 °C 1014.4 hPa ENE 1.1 km/h 5 km/h 99% 0 mm
06:30 3.6 °C 3.5 °C 1014.4 hPa Calm   5 km/h 99% 0 mm
06:31 3.6 °C 3.5 °C 1014.4 hPa Calm   5 km/h 99% 0 mm
06:32 3.6 °C 3.5 °C 1014.4 hPa ENE 1.1 km/h 5 km/h 99% 0 mm
06:33 3.6 °C 3.5 °C 1014.4 hPa ENE 1.1 km/h 5 km/h 99% 0 mm
06:36 3.6 °C 3.5 °C 1014.4 hPa Calm   5 km/h 99% 0 mm
06:38 3.7 °C 3.6 °C 1014.8 hPa ENE 1.1 km/h 6.1 km/h 99% 0 mm
06:39 3.7 °C 3.6 °C 1014.4 hPa ENE 1.1 km/h 6.1 km/h 99% 0 mm
06:41 3.7 °C 3.6 °C 1014.4 hPa East 1.1 km/h 6.1 km/h 99% 0 mm
06:43 3.7 °C 3.6 °C 1014.8 hPa ENE 1.1 km/h 6.1 km/h 99% 0 mm
06:44 3.7 °C 3.6 °C 1014.8 hPa ENE 1.1 km/h 6.1 km/h 99% 0 mm
06:46 3.7 °C 3.6 °C 1014.8 hPa Calm   6.1 km/h 99% 0 mm
06:48 3.7 °C 3.6 °C 1014.8 hPa Calm   6.1 km/h 99% 0 mm
06:49 3.7 °C 3.6 °C 1014.8 hPa ENE 1.1 km/h 3.5 km/h 99% 0 mm
06:51 3.7 °C 3.6 °C 1014.4 hPa ENE 1.1 km/h 3.5 km/h 99% 0 mm
06:52 3.7 °C 3.6 °C 1014.8 hPa Calm   3.5 km/h 99% 0 mm
06:53 3.7 °C 3.6 °C 1014.4 hPa Calm   3.5 km/h 99% 0 mm
06:54 3.7 °C 3.6 °C 1014.4 hPa East 1.1 km/h 3.5 km/h 99% 0 mm
06:57 3.7 °C 3.6 °C 1014.4 hPa ENE 2.6 km/h 3.5 km/h 99% 0 mm
06:58 3.6 °C 3.5 °C 1014.8 hPa ENE 1.1 km/h 5 km/h 99% 0 mm
06:59 3.6 °C 3.5 °C 1014.8 hPa ENE 1.1 km/h 5 km/h 99% 0 mm
07:02 3.6 °C 3.5 °C 1014.8 hPa Calm   5 km/h 99% 0 mm
07:03 3.6 °C 3.5 °C 1014.8 hPa ENE 1.1 km/h 5 km/h 99% 0 mm
07:04 3.6 °C 3.5 °C 1014.8 hPa Calm   5 km/h 99% 0 mm
07:05 3.6 °C 3.5 °C 1014.8 hPa ENE 1.1 km/h 5 km/h 99% 0 mm
07:08 3.6 °C 3.5 °C 1014.8 hPa ENE 1.1 km/h 5 km/h 99% 0 mm
07:10 3.6 °C 3.4 °C 1014.8 hPa Calm   3.5 km/h 99% 0 mm
07:11 3.6 °C 3.4 °C 1014.8 hPa Calm   3.5 km/h 99% 0 mm
07:13 3.6 °C 3.4 °C 1014.8 hPa Calm   3.5 km/h 99% 0 mm
07:14 3.6 °C 3.4 °C 1014.8 hPa ENE 1.1 km/h 3.5 km/h 99% 0 mm
07:15 3.6 °C 3.4 °C 1014.8 hPa Calm   3.5 km/h 99% 0 mm
07:16 3.6 °C 3.4 °C 1014.8 hPa Calm   3.5 km/h 99% 0 mm
07:18 3.6 °C 3.5 °C 1014.8 hPa Calm   3.5 km/h 99% 0 mm
07:19 3.6 °C 3.5 °C 1014.8 hPa Calm   3.5 km/h 99% 0 mm
07:20 3.6 °C 3.5 °C 1014.8 hPa Calm   3.5 km/h 99% 0 mm
07:21 3.6 °C 3.5 °C 1014.8 hPa Calm   3.5 km/h 99% 0 mm
07:22 3.6 °C 3.5 °C 1014.8 hPa Calm   3.5 km/h 99% 0 mm
07:23 3.6 °C 3.5 °C 1014.8 hPa Calm   3.5 km/h 99% 0 mm
07:24 3.6 °C 3.5 °C 1014.8 hPa Calm   3.5 km/h 99% 0 mm
07:25 3.6 °C 3.4 °C 1014.8 hPa Calm   3.5 km/h 99% 0 mm
07:26 3.6 °C 3.4 °C 1014.8 hPa Calm   3.5 km/h 99% 0 mm
07:27 3.6 °C 3.4 °C 1014.8 hPa Calm   3.5 km/h 99% 0 mm
07:29 3.6 °C 3.5 °C 1014.8 hPa Calm   1.1 km/h 99% 0 mm
07:30 3.6 °C 3.5 °C 1014.8 hPa Calm   1.1 km/h 99% 0 mm
07:32 3.6 °C 3.5 °C 1014.8 hPa Calm   2.6 km/h 99% 0 mm
07:33 3.6 °C 3.4 °C 1014.8 hPa Calm   2.6 km/h 99% 0 mm
07:35 3.6 °C 3.4 °C 1014.8 hPa Calm   2.6 km/h 99% 0 mm
07:37 3.6 °C 3.4 °C 1014.8 hPa Calm   2.6 km/h 99% 0 mm
07:39 3.4 °C 3.3 °C 1014.8 hPa Calm   2.6 km/h 99% 0 mm
07:40 3.3 °C 3.2 °C 1014.8 hPa Calm   2.6 km/h 99% 0 mm
07:42 3.3 °C 3.2 °C 1014.8 hPa NE 1.1 km/h 3.5 km/h 99% 0 mm
07:43 3.3 °C 3.2 °C 1014.8 hPa NE 1.1 km/h 3.5 km/h 99% 0 mm
07:45 3.3 °C 3.2 °C 1014.8 hPa Calm   3.5 km/h 99% 0 mm
07:46 3.2 °C 3.1 °C 1014.8 hPa NE 1.1 km/h 3.5 km/h 99% 0 mm
07:48 3.2 °C 3.1 °C 1014.8 hPa NE 2.6 km/h 3.5 km/h 99% 0 mm
07:50 3.2 °C 3.1 °C 1014.8 hPa Calm   3.5 km/h 99% 0 mm
07:51 3.2 °C 3.1 °C 1014.8 hPa Calm   3.5 km/h 99% 0 mm
07:53 3.2 °C 3.1 °C 1014.8 hPa Calm   3.5 km/h 99% 0 mm
07:54 3.2 °C 3.1 °C 1014.8 hPa Calm   3.5 km/h 99% 0 mm
07:56 3.2 °C 3.1 °C 1014.8 hPa Calm   3.5 km/h 99% 0 mm
07:57 3.2 °C 3.1 °C 1014.8 hPa Calm   3.5 km/h 99% 0 mm
07:59 3.3 °C 3.2 °C 1014.8 hPa NNE 1.1 km/h 3.5 km/h 99% 0 mm
08:00 3.3 °C 3.2 °C 1014.8 hPa NNE 1.1 km/h 3.5 km/h 99% 0 mm
08:01 3.3 °C 3.2 °C 1014.8 hPa NNE 1.1 km/h 3.5 km/h 99% 0 mm
08:02 3.4 °C 3.3 °C 1014.8 hPa NNE 1.1 km/h 3.5 km/h 99% 0 mm
08:04 3.6 °C 3.4 °C 1014.8 hPa NNE 1.1 km/h 5 km/h 99% 0 mm
08:05 3.6 °C 3.4 °C 1014.8 hPa NNE 1.1 km/h 5 km/h 99% 0 mm
08:06 3.6 °C 3.5 °C 1014.8 hPa NNE 1.1 km/h 5 km/h 99% 0 mm
08:07 3.7 °C 3.6 °C 1014.8 hPa NNE 1.1 km/h 5 km/h 99% 0 mm
08:08 3.8 °C 3.7 °C 1014.8 hPa NNE 2.6 km/h 5 km/h 99% 0 mm
08:09 3.9 °C 3.8 °C 1014.8 hPa NE 2.6 km/h 7.2 km/h 99% 0 mm
08:10 3.9 °C 3.8 °C 1014.8 hPa NNE 2.6 km/h 7.2 km/h 99% 0 mm
08:11 4 °C 3.9 °C 1014.8 hPa NNE 2.6 km/h 7.2 km/h 99% 0 mm
08:12 4.1 °C 4 °C 1014.8 hPa NNE 2.6 km/h 7.2 km/h 99% 0 mm
08:13 4.2 °C 4.1 °C 1014.8 hPa NNE 2.6 km/h 7.2 km/h 99% 0 mm
08:14 4.4 °C 4.3 °C 1014.8 hPa NNE 2.6 km/h 7.2 km/h 99% 0 mm
08:15 4.5 °C 4.4 °C 1015.1 hPa NNE 3.5 km/h 7.2 km/h 99% 0 mm
08:17 4.7 °C 4.6 °C 1014.8 hPa NNE 1.1 km/h 7.2 km/h 99% 0 mm
08:18 4.8 °C 4.7 °C 1014.8 hPa NNE 1.1 km/h 7.2 km/h 99% 0 mm
08:20 5.1 °C 4.9 °C 1014.8 hPa NNE 2.6 km/h 7.2 km/h 99% 0 mm
08:21 5.1 °C 4.9 °C 1014.8 hPa NNE 2.6 km/h 7.2 km/h 99% 0 mm
08:22 5.2 °C 5.1 °C 1014.8 hPa NNE 2.6 km/h 7.2 km/h 99% 0 mm
08:23 5.3 °C 5.2 °C 1014.8 hPa NNE 3.5 km/h 7.2 km/h 99% 0 mm
08:26 5.5 °C 5.3 °C 1014.8 hPa NE 2.6 km/h 7.2 km/h 99% 0 mm
08:27 5.6 °C 5.4 °C 1014.8 hPa NE 1.1 km/h 7.2 km/h 99% 0 mm
08:28 5.6 °C 5.4 °C 1014.8 hPa NE 2.6 km/h 7.2 km/h 99% 0 mm
08:29 5.6 °C 5.4 °C 1014.8 hPa NE 1.1 km/h 7.2 km/h 99% 0 mm
08:30 5.7 °C 5.6 °C 1014.8 hPa NE 1.1 km/h 7.2 km/h 99% 0 mm
08:31 5.7 °C 5.6 °C 1014.8 hPa NE 3.5 km/h 7.2 km/h 99% 0 mm
08:33 5.9 °C 5.7 °C 1014.8 hPa NE 3.5 km/h 9.7 km/h 99% 0 mm
08:34 5.9 °C 5.7 °C 1014.8 hPa NE 3.5 km/h 9.7 km/h 99% 0 mm
08:35 5.9 °C 5.7 °C 1014.8 hPa NNE 1.1 km/h 9.7 km/h 99% 0 mm
08:37 6.1 °C 5.9 °C 1014.8 hPa NNE 1.1 km/h 9.7 km/h 99% 0 mm
08:39 6.2 °C 6.1 °C 1014.8 hPa NNE 3.5 km/h 9.7 km/h 99% 0 mm
08:40 6.3 °C 6.1 °C 1014.8 hPa NNE 1.1 km/h 9.7 km/h 99% 0 mm
08:42 6.4 °C 6.3 °C 1014.8 hPa North 5 km/h 9.7 km/h 99% 0 mm
08:44 6.7 °C 6.5 °C 1014.8 hPa North 5 km/h 7.2 km/h 99% 0 mm
08:45 6.8 °C 6.6 °C 1014.8 hPa North 5 km/h 7.2 km/h 99% 0 mm
08:46 6.9 °C 6.8 °C 1014.8 hPa North 3.5 km/h 7.2 km/h 99% 0 mm
08:47 7.1 °C 6.9 °C 1014.8 hPa North 3.5 km/h 7.2 km/h 99% 0 mm
08:50 7.3 °C 7.1 °C 1014.8 hPa North 5 km/h 8.7 km/h 99% 0 mm
08:51 7.3 °C 7.2 °C 1014.4 hPa North 2.6 km/h 8.7 km/h 99% 0 mm
08:54 7.7 °C 7.5 °C 1014.4 hPa North 5 km/h 8.7 km/h 99% 0 mm
08:55 7.7 °C 7.6 °C 1014.4 hPa North 5 km/h 8.7 km/h 99% 0 mm
08:56 7.8 °C 7.7 °C 1014.4 hPa North 2.6 km/h 8.7 km/h 99% 0 mm
08:57 7.8 °C 7.7 °C 1014.4 hPa North 3.5 km/h 8.7 km/h 99% 0 mm
08:59 8.1 °C 7.9 °C 1014.8 hPa North 3.5 km/h 8.7 km/h 99% 0 mm
09:00 8.1 °C 8 °C 1014.4 hPa North 2.6 km/h 8.7 km/h 99% 0 mm
09:02 8.3 °C 8.2 °C 1014.8 hPa NNW 3.5 km/h 9.7 km/h 99% 0 mm
09:03 8.3 °C 8.2 °C 1014.4 hPa North 3.5 km/h 9.7 km/h 99% 0 mm
09:05 8.4 °C 8.3 °C 1014.8 hPa NNW 5 km/h 14.8 km/h 99% 0 mm
09:06 8.4 °C 8.3 °C 1014.8 hPa NNW 2.6 km/h 14.8 km/h 99% 0 mm
09:07 8.4 °C 8.3 °C 1014.8 hPa NNW 5 km/h 14.8 km/h 99% 0 mm
09:09 8.5 °C 8.4 °C 1014.4 hPa North 3.5 km/h 14.8 km/h 99% 0 mm
09:11 8.6 °C 8.5 °C 1014.4 hPa North 3.5 km/h 14.8 km/h 99% 0 mm
09:12 8.7 °C 8.6 °C 1014.4 hPa NNE 2.6 km/h 14.8 km/h 99% 0 mm
09:15 8.9 °C 8.8 °C 1014.4 hPa NE 3.5 km/h 11.1 km/h 99% 0 mm
09:16 9 °C 8.9 °C 1014.4 hPa NNE 5 km/h 11.1 km/h 99% 0 mm
09:17 9 °C 8.9 °C 1014.4 hPa NNE 5 km/h 11.1 km/h 99% 0 mm
09:18 9.1 °C 8.9 °C 1014.8 hPa NE 6.1 km/h 11.1 km/h 99% 0 mm
09:20 9.3 °C 9.2 °C 1014.4 hPa NNE 9.7 km/h 15.8 km/h 99% 0 mm
09:21 9.3 °C 9.2 °C 1014.4 hPa NNE 9.7 km/h 15.8 km/h 99% 0 mm
09:22 9.3 °C 9.2 °C 1014.4 hPa NNE 7.2 km/h 15.8 km/h 99% 0 mm
09:23 9.3 °C 9.2 °C 1014.4 hPa NNE 6.1 km/h 15.8 km/h 99% 0 mm
09:26 9.5 °C 9.3 °C 1014.4 hPa NNE 8.7 km/h 17.2 km/h 99% 0 mm
09:27 9.5 °C 9.2 °C 1014.8 hPa North 5 km/h 17.2 km/h 98% 0 mm
09:28 9.5 °C 9.2 °C 1014.4 hPa North 5 km/h 17.2 km/h 98% 0 mm
09:29 9.5 °C 9.1 °C 1014.4 hPa North 9.7 km/h 17.2 km/h 97% 0 mm
09:31 9.6 °C 9.2 °C 1014.4 hPa NNE 3.5 km/h 17.2 km/h 97% 0 mm
09:32 9.6 °C 9.2 °C 1014.4 hPa NNE 5 km/h 17.2 km/h 97% 0 mm
09:34 9.6 °C 8.8 °C 1014.8 hPa NNE 3.5 km/h 17.2 km/h 95% 0 mm
09:35 9.7 °C 8.9 °C 1014.4 hPa NNE 3.5 km/h 17.2 km/h 95% 0 mm
09:37 9.8 °C 9.1 °C 1014.4 hPa NNE 3.5 km/h 17.2 km/h 95% 0 mm
09:38 9.8 °C 9.1 °C 1014.8 hPa NNE 3.5 km/h 17.2 km/h 95% 0 mm
09:39 9.9 °C 9 °C 1014.8 hPa NNE 3.5 km/h 17.2 km/h 94% 0 mm
09:40 10 °C 9.1 °C 1014.8 hPa NNE 6.1 km/h 17.2 km/h 94% 0 mm
09:42 10.1 °C 9 °C 1014.8 hPa NNE 2.6 km/h 19.5 km/h 93% 0 mm
09:43 10.1 °C 9 °C 1014.8 hPa NNE 8.7 km/h 19.5 km/h 93% 0 mm
09:45 10.1 °C 8.7 °C 1014.8 hPa North 7.2 km/h 19.5 km/h 91% 0 mm
09:47 10.1 °C 8.6 °C 1014.8 hPa North 5 km/h 19.5 km/h 90% 0 mm
09:48 10.2 °C 8.6 °C 1014.8 hPa North 5 km/h 19.5 km/h 90% 0 mm
09:49 10.2 °C 8.6 °C 1014.8 hPa North 3.5 km/h 19.5 km/h 90% 0 mm
09:50 10.3 °C 8.7 °C 1014.8 hPa NNW 5 km/h 19.5 km/h 90% 0 mm
09:53 10.4 °C 8.7 °C 1014.4 hPa NNW 8.7 km/h 14.8 km/h 89% 0 mm
09:54 10.4 °C 8.5 °C 1014.4 hPa NNW 9.7 km/h 14.8 km/h 88% 0 mm
09:56 10.4 °C 8.3 °C 1014.8 hPa NW 9.7 km/h 27 km/h 87% 0 mm
09:58 10.4 °C 8.2 °C 1014.4 hPa NNW 5 km/h 27 km/h 86% 0 mm
09:59 10.5 °C 8.4 °C 1014.8 hPa NW 5 km/h 27 km/h 87% 0 mm
10:00 10.5 °C 8.4 °C 1014.8 hPa NW 6.1 km/h 27 km/h 87% 0 mm
10:01 10.5 °C 8.4 °C 1014.8 hPa NW 7.2 km/h 27 km/h 87% 0 mm
10:02 10.6 °C 8.5 °C 1014.4 hPa NNW 7.2 km/h 27 km/h 87% 0 mm
10:04 10.7 °C 8.4 °C 1014.8 hPa NNW 7.2 km/h 27 km/h 86% 0 mm
10:06 10.7 °C 8.4 °C 1014.8 hPa NNW 12.2 km/h 27 km/h 86% 0 mm
10:07 10.7 °C 8.3 °C 1014.8 hPa North 9.7 km/h 19.5 km/h 85% 0 mm
10:09 10.8 °C 8.4 °C 1014.8 hPa North 3.5 km/h 19.5 km/h 85% 0 mm
10:10 10.8 °C 8.4 °C 1014.8 hPa North 3.5 km/h 19.5 km/h 85% 0 mm
10:11 10.9 °C 8.4 °C 1014.8 hPa North 8.7 km/h 19.5 km/h 85% 0 mm
10:12 10.9 °C 8.4 °C 1014.8 hPa North 7.2 km/h 19.5 km/h 85% 0 mm
10:14 11 °C 8.4 °C 1014.8 hPa North 7.2 km/h 20.9 km/h 84% 0 mm
10:15 11 °C 8.6 °C 1014.8 hPa North 5 km/h 20.9 km/h 85% 0 mm
10:16 11 °C 8.6 °C 1014.8 hPa North 6.1 km/h 20.9 km/h 85% 0 mm
10:18 11.1 °C 8.5 °C 1014.8 hPa NNW 11.1 km/h 20.9 km/h 84% 0 mm
10:20 11.2 °C 8.7 °C 1014.8 hPa NNW 6.1 km/h 20.9 km/h 85% 0 mm
10:21 11.2 °C 8.7 °C 1014.8 hPa NW 6.1 km/h 20.9 km/h 85% 0 mm
10:23 11.4 °C 8.9 °C 1014.8 hPa NW 6.1 km/h 20.9 km/h 85% 0 mm
10:25 11.4 °C 9.1 °C 1014.8 hPa NNW 6.1 km/h 20.9 km/h 85% 0 mm
10:27 11.6 °C 9.1 °C 1014.8 hPa NNW 3.5 km/h 20.9 km/h 85% 0 mm
10:28 11.7 °C 9.2 °C 1014.8 hPa NW 7.2 km/h 19.5 km/h 85% 0 mm
10:29 11.7 °C 9.2 °C 1014.8 hPa NNW 8.7 km/h 20.9 km/h 85% 0 mm
10:31 11.8 °C 8.9 °C 1014.8 hPa NW 14.8 km/h 20.9 km/h 83% 0 mm
10:32 11.8 °C 8.9 °C 1015.1 hPa NW 9.7 km/h 20.9 km/h 83% 0 mm
10:33 11.8 °C 8.8 °C 1014.8 hPa NW 13.4 km/h 21.9 km/h 82% 0 mm
10:34 11.8 °C 8.9 °C 1014.8 hPa NW 7.2 km/h 21.9 km/h 83% 0 mm
10:35 11.8 °C 8.9 °C 1014.8 hPa NW 7.2 km/h 21.9 km/h 83% 0 mm
10:36 11.8 °C 9.2 °C 1014.8 hPa NNW 5 km/h 21.9 km/h 84% 0 mm
10:37 11.9 °C 9.3 °C 1014.8 hPa NNW 5 km/h 21.9 km/h 84% 0 mm
10:38 12.1 °C 9.4 °C 1014.8 hPa NNW 3.5 km/h 21.9 km/h 84% 0 mm
10:39 12.1 °C 9.4 °C 1014.8 hPa NNW 5 km/h 21.9 km/h 84% 0 mm
10:40 12.1 °C 9.4 °C 1014.8 hPa North 5 km/h 21.9 km/h 84% 0 mm
10:41 12.2 °C 9.6 °C 1014.8 hPa North 8.7 km/h 21.9 km/h 84% 0 mm
10:43 12.2 °C 9.2 °C 1014.8 hPa North 7.2 km/h 21.9 km/h 82% 0 mm
10:44 12.2 °C 9.2 °C 1014.8 hPa North 6.1 km/h 21.9 km/h 82% 0 mm
10:45 12.2 °C 9.2 °C 1014.8 hPa NNW 7.2 km/h 21.9 km/h 82% 0 mm
10:46 12.2 °C 9.2 °C 1014.8 hPa NNW 6.1 km/h 21.9 km/h 82% 0 mm
10:49 11.9 °C 9 °C 1014.8 hPa NNW 7.2 km/h 21.9 km/h 82% 0 mm
10:50 11.8 °C 8.9 °C 1014.8 hPa NNW 8.7 km/h 21.9 km/h 82% 0 mm
10:51 11.8 °C 8.9 °C 1014.8 hPa North 11.1 km/h 21.9 km/h 82% 0 mm
10:52 11.8 °C 8.9 °C 1014.8 hPa North 5 km/h 18.3 km/h 82% 0 mm
10:54 11.8 °C 8.8 °C 1014.8 hPa North 7.2 km/h 21.9 km/h 82% 0 mm
10:55 11.8 °C 8.8 °C 1014.8 hPa North 5 km/h 21.9 km/h 82% 0 mm
10:57 11.8 °C 8.9 °C 1014.8 hPa North 5 km/h 21.9 km/h 83% 0 mm
10:59 11.8 °C 8.9 °C 1014.8 hPa North 12.2 km/h 21.9 km/h 83% 0 mm
11:00 11.8 °C 8.9 °C 1014.8 hPa North 6.1 km/h 21.9 km/h 83% 0 mm
11:02 11.8 °C 8.9 °C 1014.8 hPa North 5 km/h 21.9 km/h 83% 0 mm
11:03 11.8 °C 9.2 °C 1014.8 hPa North 3.5 km/h 21.9 km/h 84% 0 mm
11:04 11.8 °C 9.2 °C 1014.8 hPa North 6.1 km/h 19.5 km/h 84% 0 mm
11:05 11.9 °C 9.3 °C 1014.8 hPa NNW 11.1 km/h 19.5 km/h 84% 0 mm
11:07 11.9 °C 9 °C 1014.8 hPa NNW 7.2 km/h 20.9 km/h 82% 0 mm
11:08 11.8 °C 8.9 °C 1014.8 hPa NNW 7.2 km/h 20.9 km/h 82% 0 mm
11:09 11.8 °C 8.9 °C 1014.8 hPa NNW 8.7 km/h 20.9 km/h 82% 0 mm
11:10 11.8 °C 9.1 °C 1014.8 hPa NNW 7.2 km/h 20.9 km/h 83% 0 mm
11:13 11.8 °C 8.9 °C 1014.8 hPa NW 13.4 km/h 20.9 km/h 83% 0 mm
11:14 11.8 °C 8.9 °C 1014.8 hPa NW 13.4 km/h 20.9 km/h 83% 0 mm
11:15 11.8 °C 8.9 °C 1014.8 hPa NW 9.7 km/h 20.9 km/h 83% 0 mm
11:16 11.8 °C 8.9 °C 1014.4 hPa NW 12.2 km/h 20.9 km/h 83% 0 mm
11:18 11.8 °C 9.2 °C 1014.4 hPa NW 3.5 km/h 20.9 km/h 84% 0 mm
11:20 11.8 °C 9.2 °C 1014.4 hPa NW 6.1 km/h 20.9 km/h 84% 0 mm
11:21 11.8 °C 9.2 °C 1014.4 hPa NW 7.2 km/h 20.9 km/h 84% 0 mm
11:23 11.8 °C 9.2 °C 1014.4 hPa NNW 9.7 km/h 20.9 km/h 84% 0 mm
11:24 11.9 °C 9.3 °C 1014.4 hPa NNW 6.1 km/h 20.9 km/h 84% 0 mm
11:26 11.9 °C 9.3 °C 1014.4 hPa NNW 11.1 km/h 19.5 km/h 84% 0 mm
11:27 12.1 °C 9.4 °C 1014.4 hPa NNW 6.1 km/h 19.5 km/h 84% 0 mm
11:28 12.2 °C 9.6 °C 1014.4 hPa NNW 5 km/h 19.5 km/h 84% 0 mm
11:31 12.2 °C 9.6 °C 1014.4 hPa NNW 5 km/h 18.3 km/h 84% 0 mm
11:32 12.2 °C 9.6 °C 1014.1 hPa NNW 6.1 km/h 18.3 km/h 84% 0 mm
11:34 12.3 °C 9.9 °C 1014.1 hPa NNW 5 km/h 18.3 km/h 85% 0 mm
11:36 12.6 °C 9.9 °C 1014.4 hPa NNW 6.1 km/h 19.5 km/h 84% 0 mm
11:37 12.6 °C 9.9 °C 1014.4 hPa NNW 6.1 km/h 19.5 km/h 84% 0 mm
11:39 12.6 °C 9.9 °C 1014.1 hPa NNW 7.2 km/h 19.5 km/h 84% 0 mm
11:42 12.7 °C 10 °C 1014.1 hPa NNW 8.7 km/h 19.5 km/h 84% 0 mm
11:43 12.7 °C 10.1 °C 1014.1 hPa North 11.1 km/h 21.9 km/h 84% 0 mm
11:44 12.7 °C 9.9 °C 1014.4 hPa North 11.1 km/h 21.9 km/h 83% 0 mm
11:45 12.7 °C 9.9 °C 1014.1 hPa North 8.7 km/h 21.9 km/h 83% 0 mm
11:47 12.7 °C 9.9 °C 1014.1 hPa North 7.2 km/h 21.9 km/h 83% 0 mm
11:48 12.7 °C 9.9 °C 1014.1 hPa North 8.7 km/h 21.9 km/h 83% 0 mm
11:50 12.8 °C 10 °C 1014.1 hPa North 7.2 km/h 21.9 km/h 83% 0 mm
11:51 12.8 °C 10 °C 1014.1 hPa North 7.2 km/h 21.9 km/h 83% 0 mm
11:53 12.8 °C 10 °C 1014.1 hPa North 6.1 km/h 21.9 km/h 83% 0 mm
11:55 13.1 °C 10.2 °C 1014.1 hPa NNW 9.7 km/h 19.5 km/h 83% 0 mm
11:56 13.1 °C 10.2 °C 1014.1 hPa North 9.7 km/h 19.5 km/h 83% 0 mm
11:58 13.1 °C 10.3 °C 1014.1 hPa NNW 11.1 km/h 19.5 km/h 83% 0 mm
11:59 13.1 °C 10.3 °C 1014.1 hPa NNW 7.2 km/h 19.5 km/h 83% 0 mm
12:00 13.1 °C 10.3 °C 1014.1 hPa NNW 7.2 km/h 19.5 km/h 83% 0 mm
12:01 13.1 °C 10.5 °C 1014.1 hPa NNW 8.7 km/h 19.5 km/h 84% 0 mm
12:04 13.3 °C 10.7 °C 1013.8 hPa NNW 11.1 km/h 19.5 km/h 84% 0 mm
12:05 13.3 °C 10.7 °C 1014.1 hPa NNW 6.1 km/h 19.5 km/h 84% 0 mm
12:07 13.3 °C 10.3 °C 1014.1 hPa NW 6.1 km/h 21.9 km/h 82% 0 mm
12:09 13.3 °C 10.3 °C 1013.8 hPa NW 7.2 km/h 21.9 km/h 82% 0 mm
12:10 13.3 °C 10.3 °C 1013.8 hPa NNW 8.7 km/h 21.9 km/h 82% 0 mm
12:14 13.3 °C 10.5 °C 1013.8 hPa NNW 5 km/h 21.9 km/h 83% 0 mm
12:15 13.3 °C 10.7 °C 1013.8 hPa NNW 7.2 km/h 21.9 km/h 84% 0 mm
12:16 13.4 °C 10.8 °C 1013.8 hPa NNW 11.1 km/h 21.9 km/h 84% 0 mm
12:17 13.4 °C 10.6 °C 1013.8 hPa North 3.5 km/h 19.5 km/h 83% 0 mm
12:19 13.5 °C 10.9 °C 1013.8 hPa North 3.5 km/h 19.5 km/h 84% 0 mm
12:20 13.6 °C 11 °C 1013.4 hPa North 6.1 km/h 17.2 km/h 84% 0 mm
12:21 13.5 °C 10.9 °C 1013.4 hPa North 5 km/h 17.2 km/h 84% 0 mm
12:24 13.7 °C 11.1 °C 1013.4 hPa North 5 km/h 17.2 km/h 84% 0 mm
12:25 13.7 °C 10.9 °C 1013.4 hPa North 7.2 km/h 17.2 km/h 83% 0 mm
12:26 13.7 °C 10.7 °C 1013.4 hPa North 12.2 km/h 20.9 km/h 82% 0 mm
12:27 13.7 °C 10.7 °C 1013.4 hPa North 12.2 km/h 20.9 km/h 82% 0 mm
12:30 13.6 °C 10.6 °C 1013.4 hPa North 6.1 km/h 20.9 km/h 82% 0 mm
12:31 13.5 °C 10.5 °C 1013.4 hPa North 8.7 km/h 20.9 km/h 82% 0 mm
12:32 13.4 °C 10.4 °C 1013.4 hPa NNW 7.2 km/h 20.9 km/h 82% 0 mm
12:36 13.4 °C 10.8 °C 1013.4 hPa NNW 12.2 km/h 20.9 km/h 84% 0 mm
12:37 13.5 °C 10.9 °C 1013.4 hPa NNW 8.7 km/h 19.5 km/h 84% 0 mm
12:38 13.6 °C 11 °C 1013.4 hPa NNW 8.7 km/h 19.5 km/h 84% 0 mm
12:41 13.7 °C 10.9 °C 1013.1 hPa NNW 9.7 km/h 19.5 km/h 83% 0 mm
12:42 13.7 °C 10.9 °C 1013.1 hPa NNW 8.7 km/h 19.5 km/h 83% 0 mm
12:43 13.7 °C 10.9 °C 1013.1 hPa NNW 6.1 km/h 19.5 km/h 83% 0 mm
12:44 13.7 °C 10.9 °C 1013.1 hPa NNW 5 km/h 19.5 km/h 83% 0 mm
12:47 13.8 °C 11 °C 1013.1 hPa NNW 11.1 km/h 27 km/h 83% 0 mm
12:48 13.8 °C 11 °C 1013.1 hPa North 6.1 km/h 27 km/h 83% 0 mm
12:49 13.8 °C 10.8 °C 1013.1 hPa NNW 12.2 km/h 27 km/h 82% 0 mm
12:50 13.8 °C 10.8 °C 1013.1 hPa NNW 12.2 km/h 27 km/h 82% 0 mm
12:52 13.7 °C 10.7 °C 1013.1 hPa NNW 5 km/h 27 km/h 82% 0 mm
12:53 13.7 °C 10.9 °C 1013.1 hPa North 8.7 km/h 27 km/h 83% 0 mm
12:54 13.7 °C 10.9 °C 1013.1 hPa North 8.7 km/h 27 km/h 83% 0 mm
12:55 13.7 °C 10.9 °C 1013.1 hPa North 8.7 km/h 27 km/h 83% 0 mm
12:57 13.6 °C 10.8 °C 1013.1 hPa North 6.1 km/h 25.6 km/h 83% 0 mm
12:58 13.6 °C 10.8 °C 1013.1 hPa North 6.1 km/h 25.6 km/h 83% 0 mm
13:00 13.7 °C 11.1 °C 1012.8 hPa NNE 11.1 km/h 28 km/h 84% 0 mm
13:01 13.7 °C 11.1 °C 1012.8 hPa NNE 13.4 km/h 28 km/h 84% 0 mm
13:03 13.7 °C 11.1 °C 1012.8 hPa North 6.1 km/h 28 km/h 84% 0 mm
13:04 13.7 °C 11.1 °C 1012.8 hPa North 11.1 km/h 28 km/h 84% 0 mm
13:05 13.8 °C 11.2 °C 1012.8 hPa North 9.7 km/h 28 km/h 84% 0 mm
13:06 13.8 °C 11.2 °C 1012.8 hPa North 9.7 km/h 28 km/h 84% 0 mm
13:08 13.8 °C 11.2 °C 1012.8 hPa North 15.8 km/h 28 km/h 84% 0 mm
13:09 13.8 °C 11.2 °C 1012.8 hPa North 7.2 km/h 28 km/h 84% 0 mm
13:10 13.9 °C 11.3 °C 1012.8 hPa North 5 km/h 28 km/h 84% 0 mm
13:11 13.9 °C 11.3 °C 1012.8 hPa North 6.1 km/h 28 km/h 84% 0 mm
13:13 14 °C 11.3 °C 1012.8 hPa North 6.1 km/h 28 km/h 84% 0 mm
13:14 14.1 °C 11.4 °C 1012.4 hPa North 7.2 km/h 28 km/h 84% 0 mm
13:15 14.1 °C 11.4 °C 1012.8 hPa North 7.2 km/h 28 km/h 84% 0 mm
13:16 14.1 °C 11.4 °C 1012.8 hPa North 7.2 km/h 28 km/h 84% 0 mm
13:18 14.2 °C 11.6 °C 1012.4 hPa North 19.5 km/h 27 km/h 84% 0 mm
13:20 14.2 °C 11.4 °C 1012.4 hPa North 9.7 km/h 27 km/h 83% 0 mm
13:21 14.2 °C 11.4 °C 1012.4 hPa North 9.7 km/h 27 km/h 83% 0 mm
13:22 14.2 °C 11.6 °C 1012.8 hPa North 8.7 km/h 27 km/h 84% 0 mm
13:23 14.3 °C 11.7 °C 1012.4 hPa North 6.1 km/h 27 km/h 84% 0 mm
13:24 14.4 °C 11.7 °C 1012.1 hPa North 14.8 km/h 27 km/h 84% 0 mm
13:25 14.4 °C 11.7 °C 1012.4 hPa NNW 9.7 km/h 27 km/h 84% 0 mm
13:26 14.5 °C 11.8 °C 1012.1 hPa NNW 6.1 km/h 27 km/h 84% 0 mm
13:27 14.5 °C 11.8 °C 1012.1 hPa NNW 5 km/h 27 km/h 84% 0 mm
13:29 14.6 °C 11.9 °C 1012.1 hPa NW 7.2 km/h 27 km/h 84% 0 mm
13:30 14.7 °C 12.1 °C 1012.4 hPa NW 6.1 km/h 27 km/h 84% 0 mm
13:31 14.7 °C 11.8 °C 1012.1 hPa WNW 12.2 km/h 27 km/h 83% 0 mm
13:33 14.7 °C 11.8 °C 1012.1 hPa NW 8.7 km/h 27 km/h 83% 0 mm
13:35 14.7 °C 11.8 °C 1012.1 hPa WNW 12.2 km/h 21.9 km/h 83% 0 mm
13:36 14.7 °C 11.7 °C 1012.1 hPa NW 11.1 km/h 21.9 km/h 82% 0 mm
13:37 14.7 °C 11.7 °C 1012.1 hPa NW 9.7 km/h 21.9 km/h 82% 0 mm
13:38 14.7 °C 11.8 °C 1012.1 hPa NW 12.2 km/h 21.9 km/h 83% 0 mm
13:40 14.7 °C 11.8 °C 1012.1 hPa NNW 7.2 km/h 21.9 km/h 83% 0 mm
13:41 14.6 °C 11.8 °C 1012.1 hPa NNW 7.2 km/h 21.9 km/h 83% 0 mm
13:42 14.6 °C 11.8 °C 1012.1 hPa NNW 8.7 km/h 21.9 km/h 83% 0 mm
13:43 14.6 °C 11.6 °C 1012.1 hPa NNW 7.2 km/h 21.9 km/h 82% 0 mm
13:45 14.5 °C 11.7 °C 1012.1 hPa NNW 7.2 km/h 21.9 km/h 83% 0 mm
13:46 14.5 °C 11.7 °C 1012.1 hPa NNW 5 km/h 21.9 km/h 83% 0 mm
13:48 14.4 °C 11.6 °C 1012.1 hPa NNW 6.1 km/h 20.9 km/h 83% 0 mm
13:49 14.4 °C 11.7 °C 1012.1 hPa NNW 7.2 km/h 20.9 km/h 84% 0 mm
13:50 14.3 °C 11.4 °C 1011.7 hPa NNW 9.7 km/h 17.2 km/h 83% 0 mm
13:51 14.3 °C 11.4 °C 1011.7 hPa NNW 5 km/h 17.2 km/h 83% 0 mm
13:52 14.3 °C 11.4 °C 1011.7 hPa NNW 5 km/h 17.2 km/h 83% 0 mm
13:54 14.3 °C 11.7 °C 1011.7 hPa NNW 9.7 km/h 25.6 km/h 84% 0 mm
13:55 14.4 °C 11.7 °C 1011.7 hPa NNW 13.4 km/h 29.5 km/h 84% 0 mm
13:56 14.4 °C 11.7 °C 1011.7 hPa NNW 8.7 km/h 29.5 km/h 84% 0 mm
13:57 14.4 °C 11.7 °C 1011.7 hPa NNW 8.7 km/h 29.5 km/h 84% 0 mm
13:58 14.5 °C 11.8 °C 1011.7 hPa NNW 12.2 km/h 29.5 km/h 84% 0 mm
14:00 14.6 °C 11.9 °C 1011.7 hPa NNW 9.7 km/h 29.5 km/h 84% 0 mm
14:01 14.7 °C 12.1 °C 1011.7 hPa NNW 13.4 km/h 29.5 km/h 84% 0 mm
14:02 14.7 °C 12.1 °C 1011.7 hPa NNW 9.7 km/h 29.5 km/h 84% 0 mm
14:06 14.8 °C 11.9 °C 1011.7 hPa NNW 8.7 km/h 25.6 km/h 83% 0 mm
14:07 14.9 °C 12.1 °C 1011.7 hPa NNW 11.1 km/h 20.9 km/h 83% 0 mm
14:11 15 °C 11.8 °C 1011.4 hPa NNW 11.1 km/h 24.5 km/h 81% 0 mm
14:12 15 °C 11.8 °C 1011.7 hPa NNW 11.1 km/h 24.5 km/h 81% 0 mm
14:13 14.9 °C 11.7 °C 1011.7 hPa NNW 12.2 km/h 24.5 km/h 81% 0 mm
14:17 15 °C 11.4 °C 1011.7 hPa NW 13.4 km/h 33.2 km/h 79% 0 mm
14:18 15 °C 11.4 °C 1011.7 hPa NW 12.2 km/h 33.2 km/h 79% 0 mm
14:19 15 °C 11.4 °C 1011.7 hPa NW 14.8 km/h 33.2 km/h 79% 0 mm
14:22 15 °C 11.4 °C 1011.4 hPa NW 14.8 km/h 33.2 km/h 79% 0 mm
14:23 15 °C 11.2 °C 1011.7 hPa NW 9.7 km/h 33.2 km/h 78% 0 mm
14:24 15 °C 10.8 °C 1011.4 hPa NW 14.8 km/h 33.2 km/h 76% 0 mm
14:27 15 °C 11 °C 1011.7 hPa NNW 12.2 km/h 23.3 km/h 77% 0 mm
14:28 15 °C 10.8 °C 1011.7 hPa NW 15.8 km/h 25.6 km/h 76% 0 mm
14:29 15 °C 10.8 °C 1011.7 hPa NW 14.8 km/h 25.6 km/h 76% 0 mm
14:30 14.9 °C 10.9 °C 1011.7 hPa NW 11.1 km/h 25.6 km/h 77% 0 mm
14:32 14.9 °C 10.7 °C 1011.7 hPa NW 13.4 km/h 25.6 km/h 76% 0 mm
14:33 14.9 °C 10.5 °C 1011.7 hPa NW 12.2 km/h 25.6 km/h 75% 0 mm
14:34 14.9 °C 10.5 °C 1011.7 hPa NW 17.2 km/h 25.6 km/h 75% 0 mm
14:35 14.8 °C 10.4 °C 1011.7 hPa NW 13.4 km/h 25.6 km/h 75% 0 mm
14:36 14.7 °C 10.3 °C 1011.7 hPa NW 14.8 km/h 25.6 km/h 75% 0 mm
14:37 14.6 °C 10.4 °C 1011.7 hPa NW 9.7 km/h 25.6 km/h 76% 0 mm
14:39 14.4 °C 10.2 °C 1011.7 hPa NW 13.4 km/h 25.6 km/h 76% 0 mm
14:41 14.3 °C 10.3 °C 1011.7 hPa NNW 9.7 km/h 25.6 km/h 77% 0 mm
14:43 14.2 °C 10.4 °C 1011.7 hPa NNW 11.1 km/h 25.6 km/h 78% 0 mm
14:44 14.1 °C 10.3 °C 1011.7 hPa NNW 13.4 km/h 25.6 km/h 78% 0 mm
14:46 14.1 °C 10.3 °C 1011.7 hPa NNW 13.4 km/h 25.6 km/h 78% 0 mm
14:47 14.1 °C 10.6 °C 1011.7 hPa NNW 8.7 km/h 25.6 km/h 79% 0 mm
14:48 14.1 °C 10.6 °C 1011.7 hPa NNW 12.2 km/h 25.6 km/h 79% 0 mm
14:49 14.1 °C 10.3 °C 1011.7 hPa North 11.1 km/h 25.6 km/h 78% 0 mm
14:50 14 °C 10.2 °C 1011.7 hPa NNW 11.1 km/h 25.6 km/h 78% 0 mm
14:51 13.9 °C 10.2 °C 1011.7 hPa NNW 8.7 km/h 25.6 km/h 78% 0 mm
14:52 13.9 °C 10.3 °C 1011.7 hPa North 7.2 km/h 25.6 km/h 79% 0 mm
14:53 13.8 °C 10.2 °C 1011.7 hPa North 7.2 km/h 25.6 km/h 79% 0 mm
14:54 13.8 °C 10.2 °C 1011.7 hPa North 5 km/h 25.6 km/h 79% 0 mm
14:55 13.8 °C 10.4 °C 1011.7 hPa North 7.2 km/h 25.6 km/h 80% 0 mm
14:56 13.8 °C 10.4 °C 1011.7 hPa North 7.2 km/h 25.6 km/h 80% 0 mm
14:58 14 °C 10.8 °C 1011.7 hPa North 6.1 km/h 21.9 km/h 81% 0 mm
14:59 14 °C 10.8 °C 1011.7 hPa NNW 7.2 km/h 21.9 km/h 81% 0 mm
15:00 14.1 °C 10.9 °C 1011.7 hPa NNW 12.2 km/h 21.9 km/h 81% 0 mm
15:01 14.1 °C 10.9 °C 1011.7 hPa North 9.7 km/h 21.9 km/h 81% 0 mm
15:04 14.3 °C 10.9 °C 1011.4 hPa North 12.2 km/h 25.6 km/h 80% 0 mm
15:05 14.3 °C 10.7 °C 1011.4 hPa North 12.2 km/h 25.6 km/h 79% 0 mm
15:06 14.4 °C 10.6 °C 1011.4 hPa North 13.4 km/h 25.6 km/h 78% 0 mm
15:07 14.4 °C 10.6 °C 1011.4 hPa NNW 13.4 km/h 25.6 km/h 78% 0 mm
15:09 14.5 °C 10.7 °C 1011.1 hPa NNW 8.7 km/h 25.6 km/h 78% 0 mm
15:10 14.5 °C 10.7 °C 1011.4 hPa NNW 9.7 km/h 25.6 km/h 78% 0 mm
15:11 14.5 °C 10.7 °C 1011.4 hPa NNW 9.7 km/h 25.6 km/h 78% 0 mm
15:12 14.6 °C 10.6 °C 1011.4 hPa NNW 11.1 km/h 30.6 km/h 77% 0 mm
15:16 14.6 °C 10.4 °C 1011.1 hPa NW 14.8 km/h 30.6 km/h 76% 0 mm
15:17 14.6 °C 10.4 °C 1011.4 hPa NW 12.2 km/h 30.6 km/h 76% 0 mm
15:21 14.7 °C 10.5 °C 1011.4 hPa NW 14.8 km/h 30.6 km/h 76% 0 mm
15:22 14.7 °C 10.5 °C 1011.4 hPa NW 13.4 km/h 25.6 km/h 76% 0 mm
15:24 14.6 °C 10.4 °C 1011.4 hPa NW 11.1 km/h 25.6 km/h 76% 0 mm
15:25 14.6 °C 10.4 °C 1011.4 hPa NW 13.4 km/h 25.6 km/h 76% 0 mm
15:27 14.7 °C 10.5 °C 1011.1 hPa NW 12.2 km/h 25.6 km/h 76% 0 mm
15:28 14.7 °C 10.5 °C 1011.1 hPa NW 14.8 km/h 25.6 km/h 76% 0 mm
15:29 14.7 °C 10.5 °C 1011.1 hPa NW 9.7 km/h 25.6 km/h 76% 0 mm
15:31 14.7 °C 10.5 °C 1011.1 hPa NW 9.7 km/h 25.6 km/h 76% 0 mm
15:32 14.7 °C 10.5 °C 1011.4 hPa NW 8.7 km/h 24.5 km/h 76% 0 mm
15:34 14.7 °C 10.5 °C 1011.4 hPa NW 9.7 km/h 24.5 km/h 76% 0 mm
15:37 14.7 °C 10.5 °C 1011.1 hPa NW 12.2 km/h 24.5 km/h 76% 0 mm
15:38 14.7 °C 10.5 °C 1011.1 hPa NW 8.7 km/h 24.5 km/h 76% 0 mm
15:39 14.7 °C 10.5 °C 1011.1 hPa NW 8.7 km/h 23.3 km/h 76% 0 mm
15:40 14.7 °C 10.5 °C 1011.1 hPa NNW 11.1 km/h 20.9 km/h 76% 0 mm
15:42 14.7 °C 10.1 °C 1011.1 hPa NW 13.4 km/h 23.3 km/h 74% 0 mm
15:43 14.7 °C 10.1 °C 1011.1 hPa NW 14.8 km/h 24.5 km/h 74% 0 mm
15:45 14.7 °C 10.1 °C 1011.1 hPa NW 7.2 km/h 24.5 km/h 74% 0 mm
15:46 14.7 °C 10.1 °C 1011.1 hPa NW 9.7 km/h 24.5 km/h 74% 0 mm
15:47 14.7 °C 10.1 °C 1011.1 hPa NW 14.8 km/h 27 km/h 74% 0 mm
15:48 14.7 °C 9.9 °C 1011.1 hPa NW 11.1 km/h 27 km/h 73% 0 mm
15:49 14.7 °C 9.9 °C 1011.1 hPa NNW 13.4 km/h 27 km/h 73% 0 mm
15:51 14.6 °C 9.6 °C 1011.1 hPa NW 11.1 km/h 27 km/h 72% 0 mm
15:52 14.6 °C 9.8 °C 1011.1 hPa NW 6.1 km/h 27 km/h 73% 0 mm
15:53 14.6 °C 9.8 °C 1011.1 hPa NW 7.2 km/h 27 km/h 73% 0 mm
15:54 14.6 °C 9.8 °C 1011.1 hPa NW 7.2 km/h 27 km/h 73% 0 mm
15:56 14.6 °C 10 °C 1011.1 hPa NW 7.2 km/h 27 km/h 74% 0 mm
15:58 14.6 °C 9.8 °C 1011.1 hPa NW 9.7 km/h 23.3 km/h 73% 0 mm
15:59 14.6 °C 9.8 °C 1011.4 hPa NW 14.8 km/h 23.3 km/h 73% 0 mm
16:00 14.6 °C 9.6 °C 1011.4 hPa NW 8.7 km/h 23.3 km/h 72% 0 mm
16:03 14.5 °C 9.5 °C 1011.1 hPa NW 7.2 km/h 23.3 km/h 72% 0 mm
16:04 14.5 °C 9.5 °C 1010.7 hPa NW 6.1 km/h 23.3 km/h 72% 0 mm
16:05 14.5 °C 9.5 °C 1010.7 hPa NW 6.1 km/h 23.3 km/h 72% 0 mm
16:08 14.5 °C 9.5 °C 1010.7 hPa NNW 6.1 km/h 23.3 km/h 72% 0 mm
16:09 14.4 °C 9.4 °C 1010.7 hPa NNW 6.1 km/h 23.3 km/h 72% 0 mm
16:10 14.4 °C 9.6 °C 1010.7 hPa NNW 6.1 km/h 21.9 km/h 73% 0 mm
16:13 14.4 °C 9.6 °C 1011.1 hPa NNW 6.1 km/h 21.9 km/h 73% 0 mm
16:14 14.4 °C 9.6 °C 1011.1 hPa NNW 6.1 km/h 21.9 km/h 73% 0 mm
16:15 14.4 °C 9.6 °C 1011.1 hPa NNW 5 km/h 21.9 km/h 73% 0 mm
16:16 14.4 °C 9.4 °C 1011.1 hPa NNW 8.7 km/h 21.9 km/h 72% 0 mm
16:18 14.4 °C 9.6 °C 1011.4 hPa NW 7.2 km/h 18.3 km/h 73% 0 mm
16:19 14.3 °C 9.6 °C 1011.1 hPa NW 6.1 km/h 18.3 km/h 73% 0 mm
16:20 14.3 °C 9.6 °C 1011.1 hPa NW 2.6 km/h 18.3 km/h 73% 0 mm
16:21 14.3 °C 9.6 °C 1011.1 hPa NW 5 km/h 18.3 km/h 73% 0 mm
16:25 14.3 °C 9.3 °C 1011.1 hPa NW 3.5 km/h 18.3 km/h 72% 0 mm
16:26 14.3 °C 9.6 °C 1011.1 hPa NNW 2.6 km/h 18.3 km/h 73% 0 mm
16:30 14.3 °C 9.7 °C 1011.4 hPa NNW 3.5 km/h 14.8 km/h 74% 0 mm
16:31 14.3 °C 9.7 °C 1011.4 hPa NNW 3.5 km/h 14.8 km/h 74% 0 mm
16:35 14.3 °C 9.6 °C 1011.4 hPa NNW 5 km/h 15.8 km/h 73% 0 mm
16:36 14.3 °C 9.7 °C 1011.4 hPa NNW 3.5 km/h 15.8 km/h 74% 0 mm
16:37 14.3 °C 9.7 °C 1011.4 hPa NNW 3.5 km/h 15.8 km/h 74% 0 mm
16:40 14.2 °C 9.7 °C 1011.4 hPa North 5 km/h 15.8 km/h 74% 0 mm
16:41 14.2 °C 9.8 °C 1011.4 hPa North 2.6 km/h 15.8 km/h 75% 0 mm
16:42 14.2 °C 9.7 °C 1011.4 hPa NNE 3.5 km/h 15.8 km/h 74% 0 mm
16:43 14.2 °C 9.8 °C 1011.4 hPa NNE 5 km/h 15.8 km/h 75% 0 mm
16:45 14.2 °C 9.8 °C 1011.1 hPa NE 5 km/h 8.7 km/h 75% 0 mm
16:46 14.2 °C 9.8 °C 1011.1 hPa NE 5 km/h 8.7 km/h 75% 0 mm
16:47 14.2 °C 9.8 °C 1011.1 hPa ENE 3.5 km/h 8.7 km/h 75% 0 mm
16:48 14.1 °C 9.8 °C 1011.1 hPa ENE 5 km/h 8.7 km/h 75% 0 mm
16:49 14.1 °C 9.8 °C 1011.1 hPa ENE 3.5 km/h 8.7 km/h 75% 0 mm
16:51 14.1 °C 9.8 °C 1011.1 hPa NE 3.5 km/h 8.7 km/h 75% 0 mm
16:52 14.1 °C 9.9 °C 1011.1 hPa NE 5 km/h 8.7 km/h 76% 0 mm
16:53 14 °C 9.8 °C 1011.1 hPa NE 5 km/h 9.7 km/h 76% 0 mm
16:54 14 °C 9.8 °C 1011.1 hPa NE 3.5 km/h 9.7 km/h 76% 0 mm
16:56 14 °C 9.8 °C 1011.1 hPa NE 5 km/h 9.7 km/h 76% 0 mm
16:57 14 °C 9.8 °C 1011.1 hPa NE 5 km/h 9.7 km/h 76% 0 mm
16:58 14 °C 10.1 °C 1011.1 hPa NE 7.2 km/h 9.7 km/h 77% 0 mm
17:01 13.9 °C 9.9 °C 1011.4 hPa NE 6.1 km/h 9.7 km/h 77% 0 mm
17:02 13.9 °C 9.9 °C 1011.1 hPa NE 6.1 km/h 9.7 km/h 77% 0 mm
17:03 13.9 °C 9.9 °C 1011.1 hPa NE 5 km/h 9.7 km/h 77% 0 mm
17:06 13.7 °C 9.6 °C 1011.1 hPa NE 5 km/h 11.1 km/h 76% 0 mm
17:07 13.7 °C 9.6 °C 1011.1 hPa NE 3.5 km/h 11.1 km/h 76% 0 mm
17:08 13.6 °C 9.5 °C 1011.1 hPa NE 3.5 km/h 11.1 km/h 76% 0 mm
17:09 13.6 °C 9.7 °C 1011.1 hPa NE 3.5 km/h 11.1 km/h 77% 0 mm
17:12 13.5 °C 9.6 °C 1011.4 hPa NE 5 km/h 11.1 km/h 77% 0 mm
17:13 13.4 °C 9.5 °C 1011.1 hPa NE 5 km/h 11.1 km/h 77% 0 mm
17:14 13.4 °C 9.5 °C 1011.1 hPa NE 7.2 km/h 12.2 km/h 77% 0 mm
17:17 13.3 °C 9.4 °C 1011.1 hPa NE 7.2 km/h 13.4 km/h 77% 0 mm
17:19 13.3 °C 9.4 °C 1011.1 hPa NE 7.2 km/h 13.4 km/h 77% 0 mm
17:20 13.2 °C 9.3 °C 1011.1 hPa NNE 7.2 km/h 14.8 km/h 77% 0 mm
17:22 13.2 °C 9.5 °C 1011.1 hPa NNE 6.1 km/h 14.8 km/h 78% 0 mm
17:24 13.1 °C 9.4 °C 1011.1 hPa NNE 8.7 km/h 14.8 km/h 78% 0 mm
17:25 13.1 °C 9.4 °C 1010.7 hPa NNE 6.1 km/h 14.8 km/h 78% 0 mm
17:26 13.1 °C 9.4 °C 1011.1 hPa NNE 8.7 km/h 14.8 km/h 78% 0 mm
17:27 13.1 °C 9.4 °C 1011.1 hPa NNE 7.2 km/h 14.8 km/h 78% 0 mm
17:28 13.1 °C 9.6 °C 1011.1 hPa NNE 6.1 km/h 14.8 km/h 79% 0 mm
17:30 13.1 °C 9.5 °C 1011.1 hPa NE 9.7 km/h 15.8 km/h 79% 0 mm
17:31 13.1 °C 9.3 °C 1011.1 hPa NE 9.7 km/h 15.8 km/h 78% 0 mm
17:33 12.9 °C 9.2 °C 1010.7 hPa NNE 9.7 km/h 15.8 km/h 78% 0 mm
17:34 12.9 °C 9.4 °C 1011.1 hPa NNE 9.7 km/h 15.8 km/h 79% 0 mm
17:35 12.9 °C 9.4 °C 1011.1 hPa NNE 7.2 km/h 15.8 km/h 79% 0 mm
17:36 12.9 °C 9.4 °C 1011.1 hPa NNE 9.7 km/h 15.8 km/h 79% 0 mm
17:38 12.9 °C 9.4 °C 1011.1 hPa NNE 5 km/h 15.8 km/h 79% 0 mm
17:39 12.8 °C 9.3 °C 1011.1 hPa NNE 6.1 km/h 15.8 km/h 79% 0 mm
17:40 12.8 °C 9.3 °C 1011.1 hPa NNE 9.7 km/h 17.2 km/h 79% 0 mm
17:41 12.8 °C 9.3 °C 1011.1 hPa NNE 9.7 km/h 17.2 km/h 79% 0 mm
17:42 12.8 °C 9.3 °C 1011.1 hPa NNE 8.7 km/h 17.2 km/h 79% 0 mm
17:44 12.7 °C 9.2 °C 1011.1 hPa NNE 3.5 km/h 17.2 km/h 79% 0 mm
17:46 12.7 °C 9.2 °C 1011.1 hPa NNE 3.5 km/h 17.2 km/h 79% 0 mm
17:47 12.7 °C 9.1 °C 1011.1 hPa North 6.1 km/h 17.2 km/h 79% 0 mm
17:51 12.4 °C 8.9 °C 1011.1 hPa NNE 5 km/h 15.8 km/h 79% 0 mm
17:52 12.4 °C 8.9 °C 1011.4 hPa NNE 5 km/h 12.2 km/h 79% 0 mm
17:54 12.4 °C 8.9 °C 1011.4 hPa NNE 1.1 km/h 11.1 km/h 79% 0 mm
17:56 12.3 °C 8.8 °C 1011.4 hPa North 2.6 km/h 11.1 km/h 79% 0 mm
17:57 12.2 °C 8.7 °C 1011.4 hPa North 2.6 km/h 11.1 km/h 79% 0 mm
17:58 12.2 °C 8.7 °C 1011.4 hPa North 7.2 km/h 12.2 km/h 79% 0 mm
17:59 12.2 °C 8.6 °C 1011.4 hPa North 2.6 km/h 12.2 km/h 79% 0 mm
18:02 12.1 °C 8.5 °C 1011.4 hPa North 3.5 km/h 12.2 km/h 79% 0 mm
18:04 12.1 °C 8.5 °C 1011.7 hPa NNW 1.1 km/h 12.2 km/h 79% 0 mm
18:06 11.9 °C 8.4 °C 1011.4 hPa NNW 1.1 km/h 12.2 km/h 79% 0 mm
18:07 11.9 °C 8.4 °C 1011.7 hPa Calm   12.2 km/h 79% 0 mm
18:08 11.8 °C 8.3 °C 1011.4 hPa NNW 1.1 km/h 8.7 km/h 79% 0 mm
18:09 11.8 °C 8.2 °C 1011.7 hPa North 3.5 km/h 8.7 km/h 79% 0 mm
18:12 11.7 °C 8.2 °C 1011.7 hPa NNW 5 km/h 13.4 km/h 79% 0 mm
18:13 11.7 °C 8.2 °C 1011.7 hPa NNW 5 km/h 13.4 km/h 79% 0 mm
18:16 11.6 °C 8.2 °C 1011.7 hPa NNW 7.2 km/h 13.4 km/h 80% 0 mm
18:17 11.6 °C 8.2 °C 1011.7 hPa NNW 5 km/h 13.4 km/h 80% 0 mm
18:18 11.4 °C 8.3 °C 1011.7 hPa NNW 5 km/h 13.4 km/h 81% 0 mm
18:20 11.4 °C 8.3 °C 1011.7 hPa NNW 5 km/h 13.4 km/h 81% 0 mm
18:21 11.4 °C 8.5 °C 1011.4 hPa NNW 2.6 km/h 13.4 km/h 82% 0 mm
18:23 11.4 °C 8.5 °C 1011.7 hPa NNW 2.6 km/h 12.2 km/h 82% 0 mm
18:24 11.4 °C 8.5 °C 1011.4 hPa NNW 2.6 km/h 12.2 km/h 82% 0 mm
18:25 11.4 °C 8.4 °C 1011.4 hPa NNW 2.6 km/h 12.2 km/h 82% 0 mm
18:27 11.4 °C 8.4 °C 1011.4 hPa NNW 3.5 km/h 11.1 km/h 82% 0 mm
18:28 11.4 °C 8.4 °C 1011.1 hPa NNW 1.1 km/h 11.1 km/h 82% 0 mm
18:29 11.4 °C 8.4 °C 1011.4 hPa NNW 5 km/h 8.7 km/h 82% 0 mm
18:30 11.4 °C 8.6 °C 1011.4 hPa NNW 2.6 km/h 8.7 km/h 83% 0 mm
18:32 11.4 °C 8.6 °C 1011.4 hPa NNW 3.5 km/h 12.2 km/h 83% 0 mm
18:33 11.3 °C 8.5 °C 1011.4 hPa NNW 2.6 km/h 12.2 km/h 83% 0 mm
18:35 11.3 °C 8.5 °C 1011.4 hPa NW 2.6 km/h 13.4 km/h 83% 0 mm
18:36 11.3 °C 8.5 °C 1011.4 hPa NNW 2.6 km/h 13.4 km/h 83% 0 mm
18:37 11.3 °C 8.5 °C 1011.4 hPa NNW 2.6 km/h 13.4 km/h 83% 0 mm
18:38 11.2 °C 8.4 °C 1011.4 hPa NNW 1.1 km/h 13.4 km/h 83% 0 mm
18:40 11.2 °C 8.6 °C 1011.4 hPa NW 2.6 km/h 13.4 km/h 84% 0 mm
18:41 11.2 °C 8.6 °C 1011.4 hPa NW 3.5 km/h 13.4 km/h 84% 0 mm
18:42 11.1 °C 8.5 °C 1011.4 hPa NW 2.6 km/h 13.4 km/h 84% 0 mm
18:43 11.2 °C 8.6 °C 1011.4 hPa NNW 3.5 km/h 13.4 km/h 84% 0 mm
18:45 11.1 °C 8.5 °C 1011.4 hPa NNW 3.5 km/h 12.2 km/h 84% 0 mm
18:46 11.1 °C 8.5 °C 1011.4 hPa NNW 3.5 km/h 12.2 km/h 84% 0 mm
18:47 11.1 °C 8.5 °C 1011.4 hPa NNW 3.5 km/h 12.2 km/h 84% 0 mm
18:48 11.1 °C 8.5 °C 1011.4 hPa NNW 5 km/h 12.2 km/h 84% 0 mm
18:49 11.1 °C 8.5 °C 1011.1 hPa NNW 2.6 km/h 12.2 km/h 84% 0 mm
18:50 11 °C 8.6 °C 1011.1 hPa North 5 km/h 12.2 km/h 85% 0 mm
18:51 11.1 °C 8.7 °C 1011.1 hPa North 2.6 km/h 9.7 km/h 85% 0 mm
18:54 11.1 °C 8.7 °C 1011.1 hPa North 1.1 km/h 11.1 km/h 85% 0 mm
18:55 11.1 °C 8.7 °C 1011.4 hPa North 2.6 km/h 11.1 km/h 85% 0 mm
18:56 11 °C 8.6 °C 1011.4 hPa North 2.6 km/h 11.1 km/h 85% 0 mm
18:59 11 °C 8.7 °C 1011.4 hPa North 5 km/h 12.2 km/h 86% 0 mm
19:00 11 °C 8.7 °C 1011.1 hPa North 6.1 km/h 12.2 km/h 86% 0 mm
19:01 11 °C 8.7 °C 1011.4 hPa North 3.5 km/h 12.2 km/h 86% 0 mm
19:02 11 °C 8.7 °C 1011.4 hPa North 3.5 km/h 12.2 km/h 86% 0 mm
19:05 11 °C 8.7 °C 1011.4 hPa North 6.1 km/h 15.8 km/h 86% 0 mm
19:06 10.9 °C 8.6 °C 1011.4 hPa NNW 5 km/h 15.8 km/h 86% 0 mm
19:08 11 °C 8.7 °C 1011.4 hPa NNW 2.6 km/h 15.8 km/h 86% 0 mm
19:10 11 °C 8.7 °C 1011.4 hPa NNW 3.5 km/h 15.8 km/h 86% 0 mm
19:11 11 °C 8.7 °C 1011.4 hPa North 3.5 km/h 15.8 km/h 86% 0 mm
19:13 10.9 °C 8.6 °C 1011.7 hPa NNW 2.6 km/h 15.8 km/h 86% 0 mm
19:14 10.9 °C 8.6 °C 1011.7 hPa North 7.2 km/h 15.8 km/h 86% 0 mm
19:15 10.9 °C 8.6 °C 1011.7 hPa North 3.5 km/h 13.4 km/h 86% 0 mm
19:16 10.9 °C 8.8 °C 1011.7 hPa North 3.5 km/h 13.4 km/h 87% 0 mm
19:19 10.9 °C 8.8 °C 1011.7 hPa North 7.2 km/h 14.8 km/h 87% 0 mm
19:20 10.9 °C 8.6 °C 1011.7 hPa North 3.5 km/h 14.8 km/h 86% 0 mm
19:21 10.9 °C 8.8 °C 1011.7 hPa North 2.6 km/h 14.8 km/h 87% 0 mm
19:22 10.9 °C 8.8 °C 1011.4 hPa North 3.5 km/h 14.8 km/h 87% 0 mm
19:24 10.9 °C 8.8 °C 1011.4 hPa Calm   14.8 km/h 87% 0 mm
19:26 10.9 °C 8.8 °C 1011.4 hPa NNW 3.5 km/h 14.8 km/h 87% 0 mm
19:27 10.9 °C 8.8 °C 1011.4 hPa NNW 5 km/h 14.8 km/h 87% 0 mm
19:29 10.9 °C 8.8 °C 1011.4 hPa Calm   14.8 km/h 87% 0 mm
19:31 10.9 °C 8.8 °C 1011.4 hPa NNW 3.5 km/h 12.2 km/h 87% 0 mm
19:32 10.9 °C 8.8 °C 1011.4 hPa NNW 2.6 km/h 12.2 km/h 87% 0 mm
19:33 10.8 °C 8.7 °C 1011.4 hPa NNW 8.7 km/h 13.4 km/h 87% 0 mm
19:34 10.8 °C 8.7 °C 1011.4 hPa NNW 1.1 km/h 13.4 km/h 87% 0 mm
19:35 10.8 °C 8.7 °C 1011.4 hPa NNW 3.5 km/h 13.4 km/h 87% 0 mm
19:36 10.8 °C 8.7 °C 1011.4 hPa NNW 5 km/h 13.4 km/h 87% 0 mm
19:37 10.8 °C 8.7 °C 1011.4 hPa NNW 5 km/h 13.4 km/h 87% 0 mm
19:38 10.8 °C 8.7 °C 1011.4 hPa NNW 3.5 km/h 13.4 km/h 87% 0 mm
19:40 10.8 °C 8.7 °C 1011.4 hPa NNW 11.1 km/h 15.8 km/h 87% 0 mm
19:41 10.7 °C 8.6 °C 1011.4 hPa NNW 5 km/h 15.8 km/h 87% 0 mm
19:42 10.7 °C 8.6 °C 1011.4 hPa NNW 5 km/h 15.8 km/h 87% 0 mm
19:43 10.7 °C 8.6 °C 1011.4 hPa NNW 6.1 km/h 15.8 km/h 87% 0 mm
19:45 10.7 °C 8.6 °C 1011.4 hPa NNW 6.1 km/h 15.8 km/h 87% 0 mm
19:46 10.6 °C 8.5 °C 1011.4 hPa NNW 3.5 km/h 15.8 km/h 87% 0 mm
19:47 10.6 °C 8.5 °C 1011.4 hPa NNW 6.1 km/h 15.8 km/h 87% 0 mm
19:48 10.6 °C 8.7 °C 1011.1 hPa NNW 9.7 km/h 15.8 km/h 88% 0 mm
19:49 10.6 °C 8.7 °C 1011.4 hPa NNW 9.7 km/h 15.8 km/h 88% 0 mm
19:50 10.6 °C 8.7 °C 1011.4 hPa NNW 7.2 km/h 15.8 km/h 88% 0 mm
19:51 10.5 °C 8.6 °C 1011.4 hPa NNW 5 km/h 15.8 km/h 88% 0 mm
19:52 10.5 °C 8.6 °C 1011.1 hPa NNW 7.2 km/h 15.8 km/h 88% 0 mm
19:53 10.5 °C 8.6 °C 1011.1 hPa NNW 6.1 km/h 15.8 km/h 88% 0 mm
19:55 10.5 °C 8.6 °C 1011.4 hPa NW 6.1 km/h 15.8 km/h 88% 0 mm
19:56 10.4 °C 8.5 °C 1011.4 hPa NNW 7.2 km/h 15.8 km/h 88% 0 mm
19:57 10.4 °C 8.5 °C 1011.4 hPa NNW 7.2 km/h 15.8 km/h 88% 0 mm
19:58 10.4 °C 8.5 °C 1011.4 hPa NNW 3.5 km/h 15.8 km/h 88% 0 mm
19:59 10.4 °C 8.5 °C 1011.4 hPa NNW 3.5 km/h 15.8 km/h 88% 0 mm
20:00 10.4 °C 8.5 °C 1011.4 hPa NNW 6.1 km/h 15.8 km/h 88% 0 mm
20:01 10.4 °C 8.5 °C 1011.4 hPa NNW 6.1 km/h 15.8 km/h 88% 0 mm
20:02 10.6 °C 8.8 °C 1011.4 hPa NNW 7.2 km/h 15.8 km/h 89% 0 mm
20:03 10.6 °C 8.8 °C 1011.4 hPa NNW 7.2 km/h 15.8 km/h 89% 0 mm
20:05 10.3 °C 8.6 °C 1011.4 hPa NNW 5 km/h 21.9 km/h 89% 0 mm
20:06 10.4 °C 8.7 °C 1011.7 hPa NNW 5 km/h 21.9 km/h 89% 0 mm
20:08 10.4 °C 8.7 °C 1011.7 hPa NNW 11.1 km/h 21.9 km/h 89% 0 mm
20:10 10.4 °C 8.7 °C 1011.7 hPa NW 8.7 km/h 21.9 km/h 89% 0 mm
20:11 10.3 °C 8.6 °C 1011.4 hPa NNW 7.2 km/h 21.9 km/h 89% 0 mm
20:13 10.4 °C 8.7 °C 1011.7 hPa NNW 11.1 km/h 21.9 km/h 89% 0 mm
20:15 10.4 °C 8.7 °C 1011.7 hPa NNW 8.7 km/h 18.3 km/h 89% 0 mm
20:17 10.4 °C 8.7 °C 1011.4 hPa NNW 8.7 km/h 27 km/h 89% 0 mm
20:18 10.4 °C 8.7 °C 1011.4 hPa NNW 8.7 km/h 27 km/h 89% 0 mm
20:19 10.4 °C 8.7 °C 1011.4 hPa NNW 7.2 km/h 27 km/h 89% 0 mm
www.araratweather.com - Email: contact at araratweather.com
Data created with Cumulus & bmak
Click here to send mail.


ABOUT

Live weather data from Ararat, Victoria, Australia, 3377
Data uploaded from Cumulus every 5 minutes to Weather Underground.
This site then downloads the raw data for formatting and display.
Metric and imperial data can be displayed. Graphs and historical data available.
Includes Sun and Moon times and rain image live from BOM.

Check out Ararat Weather on Facebook, Twitter and Google +

Help support ongoing costs by checking out the ads





Follow @AraratWeather